Wetterdaten: Samstag, 23.11.2019
Datum Zeit Temp. Aussen Temp. o. S. Temp +5cm Feuchte Auss Luftdruck Regen Sonnenschein Regendauer Solar Windben Empfang
23.11.2019 00:00 4,2 C 3,9 C 2,8 C 94 % 1002,2 hPa 0,0 l/m 0 min 0 min 0 W/m 12,9 km/h (3 Bft) 94,29 %
23.11.2019 00:02 4,2 C 3,9 C 2,8 C 94 % 1002,2 hPa 0,0 l/m 0 min 0 min 0 W/m 6,4 km/h (2 Bft) 15,38 %
23.11.2019 00:04 4,2 C 3,3 C 2,8 C 94 % 1002,2 hPa 0,0 l/m 0 min 0 min 0 W/m 16,1 km/h (3 Bft) 61,54 %
23.11.2019 00:08 4,2 C 3,9 C 2,8 C 94 % 1002,2 hPa 0,0 l/m 0 min 0 min 0 W/m 16,1 km/h (3 Bft) 266,08 %
23.11.2019 00:10 4,2 C 3,9 C 2,8 C 94 % 1002,1 hPa 0,0 l/m 0 min 0 min 0 W/m 6,4 km/h (2 Bft) 91,49 %
23.11.2019 00:12 4,2 C 3,9 C 2,8 C 94 % 1002,1 hPa 0,0 l/m 0 min 0 min 0 W/m 16,1 km/h (3 Bft) 97,87 %
23.11.2019 00:14 4,2 C 3,9 C 2,8 C 94 % 1002,1 hPa 0,0 l/m 0 min 0 min 0 W/m 19,3 km/h (3 Bft) 97,87 %
23.11.2019 00:16 4,2 C 3,9 C 2,8 C 94 % 1002,0 hPa 0,0 l/m 0 min 0 min 0 W/m 19,3 km/h (3 Bft) 100,00 %
23.11.2019 00:18 4,2 C 3,9 C 3,3 C 94 % 1002,0 hPa 0,0 l/m 0 min 0 min 0 W/m 16,1 km/h (3 Bft) 100,00 %
23.11.2019 00:20 4,2 C 3,9 C 3,3 C 94 % 1002,0 hPa 0,0 l/m 0 min 0 min 0 W/m 16,1 km/h (3 Bft) 97,87 %
23.11.2019 00:22 4,2 C 3,9 C 3,3 C 94 % 1002,0 hPa 0,0 l/m 0 min 0 min 0 W/m 12,9 km/h (3 Bft) 97,83 %
23.11.2019 00:24 4,2 C 3,9 C 3,3 C 94 % 1002,1 hPa 0,0 l/m 0 min 0 min 0 W/m 19,3 km/h (3 Bft) 97,87 %
23.11.2019 00:26 4,2 C 3,9 C 3,3 C 94 % 1002,0 hPa 0,0 l/m 0 min 0 min 0 W/m 19,3 km/h (3 Bft) 97,87 %
23.11.2019 00:28 4,3 C 3,9 C 3,3 C 94 % 1002,0 hPa 0,0 l/m 0 min 0 min 0 W/m 22,5 km/h (4 Bft) 95,74 %
23.11.2019 00:30 4,3 C 3,9 C 3,3 C 94 % 1001,9 hPa 0,0 l/m 0 min 0 min 0 W/m 22,5 km/h (4 Bft) 97,87 %
23.11.2019 00:32 4,3 C 3,9 C 3,3 C 94 % 1001,9 hPa 0,0 l/m 0 min 0 min 0 W/m 19,3 km/h (3 Bft) 97,83 %
23.11.2019 00:34 4,3 C 3,9 C 3,3 C 94 % 1001,9 hPa 0,0 l/m 0 min 0 min 0 W/m 19,3 km/h (3 Bft) 97,87 %
23.11.2019 00:36 4,3 C 3,9 C 3,3 C 94 % 1001,9 hPa 0,0 l/m 0 min 0 min 0 W/m 12,9 km/h (3 Bft) 97,87 %
23.11.2019 00:38 4,3 C 3,9 C 3,3 C 94 % 1001,9 hPa 0,0 l/m 0 min 0 min 0 W/m 12,9 km/h (3 Bft) 97,87 %
23.11.2019 00:40 4,3 C 3,9 C 3,3 C 94 % 1001,8 hPa 0,0 l/m 0 min 0 min 0 W/m 25,7 km/h (4 Bft) 95,74 %
23.11.2019 00:42 4,3 C 3,9 C 3,3 C 93 % 1001,8 hPa 0,0 l/m 0 min 0 min 0 W/m 25,7 km/h (4 Bft) 97,87 %
23.11.2019 00:44 4,4 C 3,9 C 3,3 C 93 % 1001,9 hPa 0,0 l/m 0 min 0 min 0 W/m 19,3 km/h (3 Bft) 97,83 %
23.11.2019 00:46 4,4 C 3,9 C 3,3 C 93 % 1001,9 hPa 0,0 l/m 0 min 0 min 0 W/m 22,5 km/h (4 Bft) 97,87 %
23.11.2019 00:48 4,4 C 3,9 C 3,3 C 93 % 1001,9 hPa 0,0 l/m 0 min 0 min 0 W/m 19,3 km/h (3 Bft) 97,87 %
23.11.2019 00:50 4,4 C 3,9 C 3,3 C 93 % 1001,8 hPa 0,0 l/m 0 min 0 min 0 W/m 22,5 km/h (4 Bft) 95,74 %
23.11.2019 00:52 4,4 C 3,9 C 3,3 C 93 % 1001,8 hPa 0,0 l/m 0 min 0 min 0 W/m 22,5 km/h (4 Bft) 97,87 %
23.11.2019 00:54 4,4 C 3,9 C 3,3 C 93 % 1001,8 hPa 0,0 l/m 0 min 0 min 0 W/m 16,1 km/h (3 Bft) 95,74 %
23.11.2019 00:56 4,4 C 3,9 C 3,3 C 93 % 1001,8 hPa 0,0 l/m 0 min 0 min 0 W/m 16,1 km/h (3 Bft) 97,83 %
23.11.2019 00:58 4,4 C 3,9 C 3,3 C 93 % 1001,7 hPa 0,0 l/m 0 min 0 min 0 W/m 19,3 km/h (3 Bft) 97,87 %
23.11.2019 01:00 4,4 C 3,9 C 3,3 C 93 % 1001,8 hPa 0,0 l/m 0 min 0 min 0 W/m 12,9 km/h (3 Bft) 93,62 %
23.11.2019 01:02 4,4 C 3,9 C 3,3 C 92 % 1001,8 hPa 0,0 l/m 0 min 0 min 0 W/m 16,1 km/h (3 Bft) 93,62 %
23.11.2019 01:04 4,4 C 3,9 C 3,3 C 92 % 1001,9 hPa 0,0 l/m 0 min 0 min 0 W/m 19,3 km/h (3 Bft) 95,74 %
23.11.2019 01:06 4,4 C 3,9 C 3,3 C 92 % 1001,8 hPa 0,0 l/m 0 min 0 min 0 W/m 19,3 km/h (3 Bft) 95,74 %
23.11.2019 01:08 4,4 C 3,9 C 3,3 C 92 % 1001,8 hPa 0,0 l/m 0 min 0 min 0 W/m 16,1 km/h (3 Bft) 95,65 %
23.11.2019 01:10 4,4 C 3,9 C 3,3 C 92 % 1001,8 hPa 0,0 l/m 0 min 0 min 0 W/m 16,1 km/h (3 Bft) 95,74 %
23.11.2019 01:12 4,4 C 3,9 C 2,8 C 92 % 1001,8 hPa 0,0 l/m 0 min 0 min 0 W/m 6,4 km/h (2 Bft) 95,74 %
23.11.2019 01:14 4,4 C 3,3 C 2,8 C 92 % 1001,8 hPa 0,0 l/m 0 min 0 min 0 W/m 12,9 km/h (3 Bft) 97,87 %
23.11.2019 01:16 4,4 C 3,3 C 2,8 C 92 % 1001,8 hPa 0,0 l/m 0 min 0 min 0 W/m 16,1 km/h (3 Bft) 93,62 %
23.11.2019 01:18 4,4 C 3,3 C 2,8 C 92 % 1001,9 hPa 0,0 l/m 0 min 0 min 0 W/m 6,4 km/h (2 Bft) 97,83 %
23.11.2019 01:20 4,3 C 3,3 C 2,8 C 92 % 1001,9 hPa 0,0 l/m 0 min 0 min 0 W/m 12,9 km/h (3 Bft) 95,74 %
23.11.2019 01:22 4,3 C 3,3 C 2,8 C 92 % 1001,9 hPa 0,0 l/m 0 min 0 min 0 W/m 25,7 km/h (4 Bft) 97,87 %
23.11.2019 01:24 4,3 C 3,3 C 2,8 C 92 % 1001,8 hPa 0,0 l/m 0 min 0 min 0 W/m 19,3 km/h (3 Bft) 95,74 %
23.11.2019 01:26 4,3 C 3,3 C 2,8 C 92 % 1001,8 hPa 0,0 l/m 0 min 0 min 0 W/m 12,9 km/h (3 Bft) 97,87 %
23.11.2019 01:28 4,3 C 3,3 C 2,8 C 92 % 1001,8 hPa 0,0 l/m 0 min 0 min 0 W/m 12,9 km/h (3 Bft) 97,87 %
23.11.2019 01:30 4,3 C 3,3 C 2,8 C 92 % 1001,8 hPa 0,0 l/m 0 min 0 min 0 W/m 12,9 km/h (3 Bft) 97,83 %
23.11.2019 01:32 4,3 C 3,3 C 2,8 C 92 % 1001,8 hPa 0,0 l/m 0 min 0 min 0 W/m 16,1 km/h (3 Bft) 97,87 %
23.11.2019 01:34 4,2 C 3,3 C 2,8 C 92 % 1001,7 hPa 0,0 l/m 0 min 0 min 0 W/m 22,5 km/h (4 Bft) 97,87 %
23.11.2019 01:36 4,2 C 3,9 C 2,8 C 92 % 1001,7 hPa 0,0 l/m 0 min 0 min 0 W/m 19,3 km/h (3 Bft) 97,87 %
23.11.2019 01:38 4,2 C 3,9 C 2,8 C 93 % 1001,6 hPa 0,0 l/m 0 min 0 min 0 W/m 16,1 km/h (3 Bft) 97,87 %
23.11.2019 01:40 4,2 C 3,9 C 3,3 C 93 % 1001,6 hPa 0,0 l/m 0 min 0 min 0 W/m 22,5 km/h (4 Bft) 95,74 %
23.11.2019 01:42 4,2 C 3,9 C 3,3 C 92 % 1001,6 hPa 0,0 l/m 0 min 0 min 0 W/m 19,3 km/h (3 Bft) 97,83 %
23.11.2019 01:44 4,2 C 3,9 C 3,3 C 93 % 1001,6 hPa 0,0 l/m 0 min 0 min 0 W/m 19,3 km/h (3 Bft) 97,87 %
23.11.2019 01:46 4,2 C 3,9 C 3,3 C 93 % 1001,5 hPa 0,0 l/m 0 min 0 min 0 W/m 29,0 km/h (5 Bft) 97,87 %
23.11.2019 01:48 4,3 C 3,9 C 3,3 C 93 % 1001,4 hPa 0,0 l/m 0 min 0 min 0 W/m 16,1 km/h (3 Bft) 95,74 %
23.11.2019 01:50 4,3 C 3,9 C 3,3 C 93 % 1001,4 hPa 0,0 l/m 0 min 0 min 0 W/m 19,3 km/h (3 Bft) 97,87 %
23.11.2019 01:52 4,3 C 3,9 C 3,3 C 93 % 1001,4 hPa 0,0 l/m 0 min 0 min 0 W/m 25,7 km/h (4 Bft) 95,74 %
23.11.2019 01:54 4,3 C 3,9 C 3,3 C 93 % 1001,4 hPa 0,0 l/m 0 min 0 min 0 W/m 22,5 km/h (4 Bft) 100,00 %
23.11.2019 01:56 4,3 C 3,9 C 3,3 C 93 % 1001,4 hPa 0,0 l/m 0 min 0 min 0 W/m 35,4 km/h (5 Bft) 100,00 %
23.11.2019 01:58 4,3 C 3,9 C 3,3 C 93 % 1001,4 hPa 0,0 l/m 0 min 0 min 0 W/m 22,5 km/h (4 Bft) 100,00 %
23.11.2019 02:00 4,3 C 3,9 C 3,3 C 93 % 1001,3 hPa 0,0 l/m 0 min 0 min 0 W/m 22,5 km/h (4 Bft) 100,00 %
23.11.2019 02:02 4,3 C 3,9 C 3,3 C 93 % 1001,3 hPa 0,0 l/m 0 min 0 min 0 W/m 25,7 km/h (4 Bft) 97,87 %
23.11.2019 02:04 4,3 C 3,9 C 3,3 C 93 % 1001,3 hPa 0,0 l/m 0 min 0 min 0 W/m 19,3 km/h (3 Bft) 100,00 %
23.11.2019 02:06 4,3 C 3,9 C 3,3 C 93 % 1001,3 hPa 0,0 l/m 0 min 0 min 0 W/m 16,1 km/h (3 Bft) 97,83 %
23.11.2019 02:08 4,3 C 3,9 C 3,3 C 93 % 1001,2 hPa 0,0 l/m 0 min 0 min 0 W/m 19,3 km/h (3 Bft) 95,74 %
23.11.2019 02:10 4,3 C 3,9 C 3,3 C 93 % 1001,1 hPa 0,0 l/m 0 min 0 min 0 W/m 12,9 km/h (3 Bft) 97,87 %
23.11.2019 02:12 4,3 C 3,9 C 3,3 C 93 % 1001,1 hPa 0,0 l/m 0 min 0 min 0 W/m 12,9 km/h (3 Bft) 93,62 %
23.11.2019 02:14 4,3 C 3,9 C 3,3 C 93 % 1001,0 hPa 0,0 l/m 0 min 0 min 0 W/m 22,5 km/h (4 Bft) 97,87 %
23.11.2019 02:16 4,3 C 3,9 C 3,3 C 93 % 1000,9 hPa 0,0 l/m 0 min 0 min 0 W/m 12,9 km/h (3 Bft) 95,74 %
23.11.2019 02:18 4,3 C 3,9 C 3,3 C 93 % 1001,0 hPa 0,0 l/m 0 min 0 min 0 W/m 12,9 km/h (3 Bft) 97,83 %
23.11.2019 02:20 4,3 C 3,9 C 3,3 C 93 % 1001,1 hPa 0,0 l/m 0 min 0 min 0 W/m 16,1 km/h (3 Bft) 95,74 %
23.11.2019 02:22 4,3 C 3,9 C 3,3 C 93 % 1001,1 hPa 0,0 l/m 0 min 0 min 0 W/m 12,9 km/h (3 Bft) 97,87 %
23.11.2019 02:24 4,3 C 3,9 C 3,3 C 93 % 1001,1 hPa 0,0 l/m 0 min 0 min 0 W/m 19,3 km/h (3 Bft) 97,87 %
23.11.2019 02:26 4,3 C 3,9 C 3,3 C 93 % 1001,1 hPa 0,0 l/m 0 min 0 min 0 W/m 16,1 km/h (3 Bft) 97,87 %
23.11.2019 02:28 4,3 C 3,9 C 3,3 C 93 % 1001,1 hPa 0,0 l/m 0 min 0 min 0 W/m 12,9 km/h (3 Bft) 97,83 %
23.11.2019 02:30 4,3 C 3,9 C 2,8 C 92 % 1001,1 hPa 0,0 l/m 0 min 0 min 0 W/m 19,3 km/h (3 Bft) 97,87 %
23.11.2019 02:32 4,3 C 3,9 C 3,3 C 92 % 1001,0 hPa 0,0 l/m 0 min 0 min 0 W/m 22,5 km/h (4 Bft) 97,87 %
23.11.2019 02:34 4,3 C 3,9 C 3,3 C 92 % 1001,0 hPa 0,0 l/m 0 min 0 min 0 W/m 16,1 km/h (3 Bft) 97,87 %
23.11.2019 02:36 4,3 C 3,9 C 3,3 C 92 % 1000,9 hPa 0,0 l/m 0 min 0 min 0 W/m 12,9 km/h (3 Bft) 97,87 %
23.11.2019 02:38 4,3 C 3,9 C 3,3 C 92 % 1000,9 hPa 0,0 l/m 0 min 0 min 0 W/m 16,1 km/h (3 Bft) 95,74 %
23.11.2019 02:40 4,3 C 3,9 C 3,3 C 92 % 1000,9 hPa 0,0 l/m 0 min 0 min 0 W/m 12,9 km/h (3 Bft) 97,83 %
23.11.2019 02:42 4,3 C 3,9 C 3,3 C 92 % 1000,8 hPa 0,0 l/m 0 min 0 min 0 W/m 16,1 km/h (3 Bft) 97,87 %
23.11.2019 02:44 4,3 C 3,9 C 3,3 C 92 % 1000,7 hPa 0,0 l/m 0 min 0 min 0 W/m 16,1 km/h (3 Bft) 97,87 %
23.11.2019 02:46 4,3 C 3,9 C 3,3 C 92 % 1000,7 hPa 0,0 l/m 0 min 0 min 0 W/m 19,3 km/h (3 Bft) 97,87 %
23.11.2019 02:48 4,3 C 3,9 C 3,3 C 92 % 1000,7 hPa 0,0 l/m 0 min 0 min 0 W/m 29,0 km/h (5 Bft) 97,87 %
23.11.2019 02:50 4,3 C 3,9 C 3,3 C 92 % 1000,7 hPa 0,0 l/m 0 min 0 min 0 W/m 29,0 km/h (5 Bft) 100,00 %
23.11.2019 02:52 4,3 C 3,9 C 3,3 C 92 % 1000,7 hPa 0,0 l/m 0 min 0 min 0 W/m 25,7 km/h (4 Bft) 100,00 %
23.11.2019 02:54 4,3 C 3,9 C 3,3 C 92 % 1000,7 hPa 0,0 l/m 0 min 0 min 0 W/m 25,7 km/h (4 Bft) 95,74 %
23.11.2019 02:56 4,3 C 3,9 C 3,3 C 92 % 1000,7 hPa 0,0 l/m 0 min 0 min 0 W/m 19,3 km/h (3 Bft) 97,87 %
23.11.2019 02:58 4,3 C 3,9 C 3,3 C 92 % 1000,7 hPa 0,0 l/m 0 min 0 min 0 W/m 41,8 km/h (6 Bft) 97,87 %
23.11.2019 03:00 4,4 C 3,9 C 3,3 C 92 % 1000,6 hPa 0,0 l/m 0 min 0 min 0 W/m 12,9 km/h (3 Bft) 100,00 %
23.11.2019 03:02 4,4 C 3,9 C 3,3 C 92 % 1000,6 hPa 0,0 l/m 0 min 0 min 0 W/m 16,1 km/h (3 Bft) 100,00 %
23.11.2019 03:04 4,4 C 3,9 C 3,3 C 92 % 1000,6 hPa 0,0 l/m 0 min 0 min 0 W/m 25,7 km/h (4 Bft) 93,48 %
23.11.2019 03:06 4,4 C 3,9 C 3,3 C 92 % 1000,6 hPa 0,0 l/m 0 min 0 min 0 W/m 19,3 km/h (3 Bft) 97,87 %
23.11.2019 03:08 4,4 C 3,9 C 3,3 C 92 % 1000,6 hPa 0,0 l/m 0 min 0 min 0 W/m 16,1 km/h (3 Bft) 95,74 %
23.11.2019 03:10 4,4 C 3,9 C 3,3 C 92 % 1000,6 hPa 0,0 l/m 0 min 0 min 0 W/m 29,0 km/h (5 Bft) 100,00 %
23.11.2019 03:12 4,4 C 3,9 C 3,3 C 92 % 1000,6 hPa 0,0 l/m 0 min 0 min 0 W/m 19,3 km/h (3 Bft) 95,74 %
23.11.2019 03:14 4,4 C 3,9 C 3,3 C 92 % 1000,5 hPa 0,0 l/m 0 min 0 min 0 W/m 16,1 km/h (3 Bft) 95,74 %
23.11.2019 03:16 4,4 C 3,9 C 3,3 C 92 % 1000,4 hPa 0,0 l/m 0 min 0 min 0 W/m 12,9 km/h (3 Bft) 95,65 %
23.11.2019 03:18 4,4 C 3,9 C 3,3 C 91 % 1000,4 hPa 0,0 l/m 0 min 0 min 0 W/m 19,3 km/h (3 Bft) 95,74 %
23.11.2019 03:20 4,4 C 3,9 C 3,3 C 91 % 1000,4 hPa 0,0 l/m 0 min 0 min 0 W/m 16,1 km/h (3 Bft) 100,00 %
23.11.2019 03:22 4,5 C 3,9 C 3,3 C 91 % 1000,4 hPa 0,0 l/m 0 min 0 min 0 W/m 12,9 km/h (3 Bft) 100,00 %
23.11.2019 03:24 4,5 C 3,9 C 3,3 C 91 % 1000,3 hPa 0,0 l/m 0 min 0 min 0 W/m 19,3 km/h (3 Bft) 97,87 %
23.11.2019 03:26 4,4 C 3,9 C 3,3 C 91 % 1000,4 hPa 0,0 l/m 0 min 0 min 0 W/m 19,3 km/h (3 Bft) 97,83 %
23.11.2019 03:28 4,4 C 3,9 C 3,3 C 91 % 1000,6 hPa 0,0 l/m 0 min 0 min 0 W/m 12,9 km/h (3 Bft) 97,87 %
23.11.2019 03:30 4,4 C 3,9 C 3,3 C 91 % 1000,6 hPa 0,0 l/m 0 min 0 min 0 W/m 22,5 km/h (4 Bft) 97,87 %
23.11.2019 03:32 4,4 C 3,9 C 3,3 C 91 % 1000,6 hPa 0,0 l/m 0 min 0 min 0 W/m 19,3 km/h (3 Bft) 95,74 %
23.11.2019 03:34 4,4 C 3,9 C 3,3 C 91 % 1000,6 hPa 0,0 l/m 0 min 0 min 0 W/m 22,5 km/h (4 Bft) 100,00 %
23.11.2019 03:36 4,4 C 3,9 C 3,3 C 91 % 1000,6 hPa 0,0 l/m 0 min 0 min 0 W/m 19,3 km/h (3 Bft) 97,87 %
23.11.2019 03:38 4,4 C 3,9 C 3,3 C 91 % 1000,5 hPa 0,0 l/m 0 min 0 min 0 W/m 16,1 km/h (3 Bft) 97,87 %
23.11.2019 03:40 4,4 C 3,9 C 3,3 C 91 % 1000,5 hPa 0,0 l/m 0 min 0 min 0 W/m 19,3 km/h (3 Bft) 97,83 %
23.11.2019 03:42 4,4 C 3,9 C 3,3 C 91 % 1000,5 hPa 0,0 l/m 0 min 0 min 0 W/m 12,9 km/h (3 Bft) 95,74 %
23.11.2019 03:44 4,4 C 3,9 C 3,3 C 91 % 1000,4 hPa 0,0 l/m 0 min 0 min 0 W/m 6,4 km/h (2 Bft) 97,87 %
23.11.2019 03:46 4,4 C 3,9 C 3,3 C 91 % 1000,4 hPa 0,0 l/m 0 min 0 min 0 W/m 6,4 km/h (2 Bft) 95,74 %
23.11.2019 03:48 4,4 C 3,9 C 3,3 C 91 % 1000,4 hPa 0,0 l/m 0 min 0 min 0 W/m 3,2 km/h (1 Bft) 97,87 %
23.11.2019 03:50 4,4 C 3,9 C 2,8 C 91 % 1000,3 hPa 0,0 l/m 0 min 0 min 0 W/m 12,9 km/h (3 Bft) 97,83 %
23.11.2019 03:52 4,4 C 3,9 C 2,8 C 91 % 1000,3 hPa 0,0 l/m 0 min 0 min 0 W/m 6,4 km/h (2 Bft) 97,87 %
23.11.2019 03:54 4,4 C 3,9 C 2,8 C 91 % 1000,2 hPa 0,0 l/m 0 min 0 min 0 W/m 12,9 km/h (3 Bft) 97,87 %
23.11.2019 03:56 4,4 C 3,3 C 2,8 C 91 % 1000,3 hPa 0,0 l/m 0 min 0 min 0 W/m 3,2 km/h (1 Bft) 100,00 %
23.11.2019 03:58 4,4 C 3,3 C 2,8 C 91 % 1000,3 hPa 0,0 l/m 0 min 0 min 0 W/m 6,4 km/h (2 Bft) 97,87 %
23.11.2019 04:00 4,4 C 3,3 C 2,8 C 91 % 1000,4 hPa 0,0 l/m 0 min 0 min 0 W/m 6,4 km/h (2 Bft) 97,87 %
23.11.2019 04:02 4,3 C 3,3 C 2,8 C 91 % 1000,4 hPa 0,0 l/m 0 min 0 min 0 W/m 12,9 km/h (3 Bft) 100,00 %
23.11.2019 04:04 4,3 C 3,3 C 2,8 C 92 % 1000,5 hPa 0,0 l/m 0 min 0 min 0 W/m 12,9 km/h (3 Bft) 100,00 %
23.11.2019 04:06 4,3 C 3,3 C 2,8 C 91 % 1000,5 hPa 0,0 l/m 0 min 0 min 0 W/m 19,3 km/h (3 Bft) 100,00 %
23.11.2019 04:08 4,3 C 3,3 C 2,8 C 91 % 1000,4 hPa 0,0 l/m 0 min 0 min 0 W/m 3,2 km/h (1 Bft) 100,00 %
23.11.2019 04:10 4,3 C 3,3 C 2,8 C 91 % 1000,4 hPa 0,0 l/m 0 min 0 min 0 W/m 3,2 km/h (1 Bft) 100,00 %
23.11.2019 04:12 4,3 C 3,3 C 2,8 C 92 % 1000,4 hPa 0,0 l/m 0 min 0 min 0 W/m 12,9 km/h (3 Bft) 100,00 %
23.11.2019 04:14 4,3 C 3,3 C 2,8 C 92 % 1000,3 hPa 0,0 l/m 0 min 0 min 0 W/m 16,1 km/h (3 Bft) 97,83 %
23.11.2019 04:16 4,2 C 3,3 C 2,8 C 92 % 1000,2 hPa 0,0 l/m 0 min 0 min 0 W/m 6,4 km/h (2 Bft) 100,00 %
23.11.2019 04:18 4,2 C 3,3 C 2,8 C 92 % 1000,3 hPa 0,0 l/m 0 min 0 min 0 W/m 6,4 km/h (2 Bft) 100,00 %
23.11.2019 04:20 4,2 C 3,3 C 2,8 C 92 % 1000,3 hPa 0,0 l/m 0 min 0 min 0 W/m 3,2 km/h (1 Bft) 100,00 %
23.11.2019 04:22 4,2 C 3,3 C 2,8 C 92 % 1000,3 hPa 0,0 l/m 0 min 0 min 0 W/m 6,4 km/h (2 Bft) 100,00 %
23.11.2019 04:24 4,2 C 3,3 C 2,8 C 92 % 1000,2 hPa 0,0 l/m 0 min 0 min 0 W/m 6,4 km/h (2 Bft) 97,87 %
23.11.2019 04:26 4,2 C 3,3 C 2,8 C 92 % 1000,2 hPa 0,0 l/m 0 min 0 min 0 W/m 3,2 km/h (1 Bft) 97,83 %
23.11.2019 04:28 4,2 C 3,3 C 2,8 C 92 % 1000,2 hPa 0,0 l/m 0 min 0 min 0 W/m 3,2 km/h (1 Bft) 93,62 %
23.11.2019 04:30 4,1 C 3,3 C 2,8 C 92 % 1000,1 hPa 0,0 l/m 0 min 0 min 0 W/m 3,2 km/h (1 Bft) 97,87 %
23.11.2019 04:32 4,1 C 3,3 C 2,8 C 92 % 1000,1 hPa 0,0 l/m 0 min 0 min 0 W/m 3,2 km/h (1 Bft) 97,87 %
23.11.2019 04:34 4,1 C 3,3 C 2,8 C 92 % 1000,1 hPa 0,0 l/m 0 min 0 min 0 W/m 6,4 km/h (2 Bft) 97,87 %
23.11.2019 04:36 4,1 C 3,3 C 2,8 C 92 % 1000,1 hPa 0,0 l/m 0 min 0 min 0 W/m 12,9 km/h (3 Bft) 95,65 %
23.11.2019 04:38 4,1 C 3,3 C 2,8 C 92 % 1000,1 hPa 0,0 l/m 0 min 0 min 0 W/m 6,4 km/h (2 Bft) 95,74 %
23.11.2019 04:40 4,1 C 3,3 C 2,8 C 92 % 1000,1 hPa 0,0 l/m 0 min 0 min 0 W/m 19,3 km/h (3 Bft) 97,87 %
23.11.2019 04:42 4,1 C 3,3 C 2,8 C 92 % 1000,2 hPa 0,0 l/m 0 min 0 min 0 W/m 12,9 km/h (3 Bft) 93,62 %
23.11.2019 04:44 4,1 C 3,3 C 2,8 C 92 % 1000,3 hPa 0,0 l/m 0 min 0 min 0 W/m 6,4 km/h (2 Bft) 97,87 %
23.11.2019 04:46 4,1 C 3,3 C 2,8 C 92 % 1000,3 hPa 0,0 l/m 0 min 0 min 0 W/m 6,4 km/h (2 Bft) 95,74 %
23.11.2019 04:48 4,1 C 3,3 C 2,8 C 92 % 1000,2 hPa 0,0 l/m 0 min 0 min 0 W/m 3,2 km/h (1 Bft) 95,65 %
23.11.2019 04:50 4,1 C 3,3 C 2,8 C 92 % 1000,3 hPa 0,0 l/m 0 min 0 min 0 W/m 6,4 km/h (2 Bft) 95,74 %
23.11.2019 04:52 4,1 C 3,9 C 2,8 C 92 % 1000,3 hPa 0,0 l/m 0 min 0 min 0 W/m 3,2 km/h (1 Bft) 95,74 %
23.11.2019 04:54 4,1 C 3,9 C 2,8 C 92 % 1000,3 hPa 0,0 l/m 0 min 0 min 0 W/m 16,1 km/h (3 Bft) 95,74 %
23.11.2019 04:56 4,1 C 3,9 C 3,3 C 93 % 1000,2 hPa 0,0 l/m 0 min 0 min 0 W/m 12,9 km/h (3 Bft) 91,49 %
23.11.2019 04:58 4,1 C 3,9 C 3,3 C 93 % 1000,2 hPa 0,0 l/m 0 min 0 min 0 W/m 6,4 km/h (2 Bft) 95,74 %
23.11.2019 05:00 4,2 C 3,9 C 3,3 C 93 % 1000,3 hPa 0,0 l/m 0 min 0 min 0 W/m 6,4 km/h (2 Bft) 95,65 %
23.11.2019 05:02 4,2 C 3,9 C 3,3 C 93 % 1000,2 hPa 0,0 l/m 0 min 0 min 0 W/m 3,2 km/h (1 Bft) 95,74 %
23.11.2019 05:04 4,2 C 3,9 C 3,3 C 93 % 1000,3 hPa 0,0 l/m 0 min 0 min 0 W/m 6,4 km/h (2 Bft) 95,74 %
23.11.2019 05:06 4,2 C 3,9 C 2,8 C 93 % 1000,2 hPa 0,0 l/m 0 min 0 min 0 W/m 6,4 km/h (2 Bft) 95,74 %
23.11.2019 05:08 4,2 C 3,3 C 2,8 C 93 % 1000,2 hPa 0,0 l/m 0 min 0 min 0 W/m 6,4 km/h (2 Bft) 95,74 %
23.11.2019 05:10 4,2 C 3,3 C 2,8 C 93 % 1000,2 hPa 0,0 l/m 0 min 0 min 0 W/m 3,2 km/h (1 Bft) 95,74 %
23.11.2019 05:12 4,2 C 3,3 C 2,8 C 93 % 1000,2 hPa 0,0 l/m 0 min 0 min 0 W/m 0,0 km/h (0 Bft) 95,65 %
23.11.2019 05:14 4,2 C 3,3 C 2,8 C 93 % 1000,2 hPa 0,0 l/m 0 min 0 min 0 W/m 3,2 km/h (1 Bft) 93,62 %
23.11.2019 05:16 4,2 C 3,3 C 2,8 C 93 % 1000,2 hPa 0,0 l/m 0 min 0 min 0 W/m 3,2 km/h (1 Bft) 95,74 %
23.11.2019 05:18 4,2 C 3,3 C 2,8 C 93 % 1000,1 hPa 0,0 l/m 0 min 0 min 0 W/m 6,4 km/h (2 Bft) 93,62 %
23.11.2019 05:20 4,2 C 3,3 C 2,8 C 93 % 1000,1 hPa 0,0 l/m 0 min 0 min 0 W/m 6,4 km/h (2 Bft) 97,87 %
23.11.2019 05:22 4,2 C 3,3 C 2,8 C 93 % 1000,1 hPa 0,0 l/m 0 min 0 min 0 W/m 6,4 km/h (2 Bft) 97,87 %
23.11.2019 05:24 4,2 C 3,3 C 2,8 C 93 % 1000,1 hPa 0,0 l/m 0 min 0 min 0 W/m 3,2 km/h (1 Bft) 97,83 %
23.11.2019 05:26 4,2 C 3,3 C 2,8 C 93 % 1000,1 hPa 0,0 l/m 0 min 0 min 0 W/m 0,0 km/h (0 Bft) 95,74 %
23.11.2019 05:28 4,2 C 3,3 C 2,8 C 93 % 1000,0 hPa 0,0 l/m 0 min 0 min 0 W/m 3,2 km/h (1 Bft) 97,87 %
23.11.2019 05:30 4,2 C 3,3 C 2,8 C 93 % 1000,0 hPa 0,0 l/m 0 min 0 min 0 W/m 0,0 km/h (0 Bft) 100,00 %
23.11.2019 05:32 4,2 C 3,3 C 2,8 C 93 % 1000,0 hPa 0,0 l/m 0 min 0 min 0 W/m 3,2 km/h (1 Bft) 100,00 %
23.11.2019 05:34 4,2 C 3,3 C 2,8 C 93 % 999,9 hPa 0,0 l/m 0 min 0 min 0 W/m 0,0 km/h (0 Bft) 100,00 %
23.11.2019 05:36 4,2 C 3,3 C 2,8 C 93 % 999,9 hPa 0,0 l/m 0 min 0 min 0 W/m 3,2 km/h (1 Bft) 95,65 %
23.11.2019 05:38 4,2 C 3,3 C 2,8 C 93 % 999,8 hPa 0,0 l/m 0 min 0 min 0 W/m 6,4 km/h (2 Bft) 97,87 %
23.11.2019 05:40 4,2 C 3,3 C 2,8 C 93 % 999,8 hPa 0,0 l/m 0 min 0 min 0 W/m 3,2 km/h (1 Bft) 100,00 %
23.11.2019 05:42 4,2 C 3,3 C 2,8 C 93 % 999,8 hPa 0,0 l/m 0 min 0 min 0 W/m 3,2 km/h (1 Bft) 100,00 %
23.11.2019 05:44 4,2 C 3,3 C 2,8 C 93 % 999,8 hPa 0,0 l/m 0 min 0 min 0 W/m 6,4 km/h (2 Bft) 100,00 %
23.11.2019 05:46 4,2 C 3,3 C 2,8 C 93 % 999,8 hPa 0,0 l/m 0 min 0 min 0 W/m 3,2 km/h (1 Bft) 100,00 %
23.11.2019 05:48 4,2 C 3,3 C 2,8 C 93 % 999,8 hPa 0,0 l/m 0 min 0 min 0 W/m 6,4 km/h (2 Bft) 97,87 %
23.11.2019 05:50 4,2 C 3,3 C 2,8 C 93 % 999,7 hPa 0,0 l/m 0 min 0 min 0 W/m 0,0 km/h (0 Bft) 100,00 %
23.11.2019 05:52 4,2 C 3,3 C 2,8 C 93 % 999,6 hPa 0,0 l/m 0 min 0 min 0 W/m 3,2 km/h (1 Bft) 97,87 %
23.11.2019 05:54 4,2 C 3,3 C 2,8 C 93 % 999,6 hPa 0,0 l/m 0 min 0 min 0 W/m 3,2 km/h (1 Bft) 97,87 %
23.11.2019 05:56 4,2 C 3,3 C 2,8 C 93 % 999,6 hPa 0,0 l/m 0 min 0 min 0 W/m 0,0 km/h (0 Bft) 100,00 %
23.11.2019 05:58 4,2 C 3,3 C 2,8 C 93 % 999,6 hPa 0,0 l/m 0 min 0 min 0 W/m 3,2 km/h (1 Bft) 100,00 %
23.11.2019 06:00 4,2 C 3,3 C 2,8 C 93 % 999,6 hPa 0,0 l/m 0 min 0 min 0 W/m 3,2 km/h (1 Bft) 97,87 %
23.11.2019 06:02 4,1 C 3,3 C 2,8 C 93 % 999,5 hPa 0,0 l/m 0 min 0 min 0 W/m 3,2 km/h (1 Bft) 95,74 %
23.11.2019 06:04 4,1 C 3,3 C 2,8 C 93 % 999,5 hPa 0,0 l/m 0 min 0 min 0 W/m 0,0 km/h (0 Bft) 100,00 %
23.11.2019 06:06 4,1 C 3,3 C 2,8 C 93 % 999,4 hPa 0,0 l/m 0 min 0 min 0 W/m 0,0 km/h (0 Bft) 95,74 %
23.11.2019 06:08 4,1 C 3,3 C 2,8 C 93 % 999,4 hPa 0,0 l/m 0 min 0 min 0 W/m 3,2 km/h (1 Bft) 97,87 %
23.11.2019 06:10 4,1 C 3,3 C 2,8 C 93 % 999,4 hPa 0,0 l/m 0 min 0 min 0 W/m 3,2 km/h (1 Bft) 97,83 %
23.11.2019 06:12 4,1 C 3,9 C 2,8 C 93 % 999,4 hPa 0,0 l/m 0 min 0 min 0 W/m 6,4 km/h (2 Bft) 97,87 %
23.11.2019 06:14 4,1 C 3,9 C 2,8 C 93 % 999,4 hPa 0,0 l/m 0 min 0 min 0 W/m 6,4 km/h (2 Bft) 97,87 %
23.11.2019 06:16 4,2 C 3,9 C 3,3 C 93 % 999,4 hPa 0,0 l/m 0 min 0 min 0 W/m 12,9 km/h (3 Bft) 93,62 %
23.11.2019 06:18 4,2 C 3,9 C 3,3 C 94 % 999,4 hPa 0,0 l/m 0 min 0 min 0 W/m 12,9 km/h (3 Bft) 97,87 %
23.11.2019 06:20 4,3 C 3,9 C 3,3 C 93 % 999,4 hPa 0,0 l/m 0 min 0 min 0 W/m 12,9 km/h (3 Bft) 97,87 %
23.11.2019 06:22 4,3 C 3,9 C 3,3 C 93 % 999,4 hPa 0,0 l/m 0 min 0 min 0 W/m 12,9 km/h (3 Bft) 97,83 %
23.11.2019 06:24 4,3 C 3,9 C 3,3 C 93 % 999,4 hPa 0,0 l/m 0 min 0 min 0 W/m 6,4 km/h (2 Bft) 97,87 %
23.11.2019 06:26 4,3 C 3,9 C 3,3 C 93 % 999,4 hPa 0,0 l/m 0 min 0 min 0 W/m 3,2 km/h (1 Bft) 97,87 %
23.11.2019 06:28 4,3 C 3,9 C 3,3 C 93 % 999,4 hPa 0,0 l/m 0 min 0 min 0 W/m 6,4 km/h (2 Bft) 97,87 %
23.11.2019 06:30 4,4 C 3,9 C 3,3 C 93 % 999,4 hPa 0,0 l/m 0 min 0 min 0 W/m 3,2 km/h (1 Bft) 97,87 %
23.11.2019 06:32 4,4 C 3,9 C 3,3 C 93 % 999,4 hPa 0,0 l/m 0 min 0 min 0 W/m 3,2 km/h (1 Bft) 95,65 %
23.11.2019 06:34 4,4 C 3,9 C 3,3 C 93 % 999,4 hPa 0,0 l/m 0 min 0 min 0 W/m 3,2 km/h (1 Bft) 97,87 %
23.11.2019 06:36 4,4 C 3,3 C 2,8 C 93 % 999,3 hPa 0,0 l/m 0 min 0 min 0 W/m 3,2 km/h (1 Bft) 97,87 %
23.11.2019 06:38 4,3 C 3,3 C 2,8 C 93 % 999,4 hPa 0,0 l/m 0 min 0 min 0 W/m 3,2 km/h (1 Bft) 97,87 %
23.11.2019 06:40 4,3 C 3,3 C 2,8 C 93 % 999,4 hPa 0,0 l/m 0 min 0 min 0 W/m 0,0 km/h (0 Bft) 97,87 %
23.11.2019 06:42 4,3 C 3,3 C 2,8 C 93 % 999,4 hPa 0,0 l/m 0 min 0 min 0 W/m 0,0 km/h (0 Bft) 97,87 %
23.11.2019 06:44 4,3 C 2,8 C 2,8 C 93 % 999,4 hPa 0,0 l/m 0 min 0 min 0 W/m 0,0 km/h (0 Bft) 97,87 %
23.11.2019 06:46 4,3 C 2,8 C 2,8 C 93 % 999,4 hPa 0,0 l/m 0 min 0 min 0 W/m 3,2 km/h (1 Bft) 97,83 %
23.11.2019 06:48 4,3 C 2,8 C 2,2 C 93 % 999,4 hPa 0,0 l/m 0 min 0 min 0 W/m 0,0 km/h (0 Bft) 95,74 %
23.11.2019 06:50 4,2 C 2,8 C 2,2 C 93 % 999,4 hPa 0,0 l/m 0 min 0 min 0 W/m 0,0 km/h (0 Bft) 97,87 %
23.11.2019 06:52 4,2 C 2,8 C 2,2 C 93 % 999,5 hPa 0,0 l/m 0 min 0 min 0 W/m 0,0 km/h (0 Bft) 97,87 %
23.11.2019 06:54 4,2 C 2,8 C 2,2 C 93 % 999,5 hPa 0,0 l/m 0 min 0 min 0 W/m 0,0 km/h (0 Bft) 97,87 %
23.11.2019 06:56 4,2 C 2,8 C 2,2 C 93 % 999,5 hPa 0,0 l/m 0 min 0 min 0 W/m 0,0 km/h (0 Bft) 97,83 %
23.11.2019 06:58 4,1 C 2,8 C 2,2 C 93 % 999,4 hPa 0,0 l/m 0 min 0 min 0 W/m 0,0 km/h (0 Bft) 100,00 %
23.11.2019 07:00 4,1 C 2,8 C 2,2 C 93 % 999,4 hPa 0,0 l/m 0 min 0 min 0 W/m 0,0 km/h (0 Bft) 100,00 %
23.11.2019 07:02 4,1 C 2,8 C 2,2 C 93 % 999,4 hPa 0,0 l/m 0 min 0 min 0 W/m 0,0 km/h (0 Bft) 97,87 %
23.11.2019 07:04 4,1 C 2,8 C 2,2 C 93 % 999,4 hPa 0,0 l/m 0 min 0 min 0 W/m 0,0 km/h (0 Bft) 97,87 %
23.11.2019 07:06 4,0 C 2,8 C 2,2 C 93 % 999,4 hPa 0,0 l/m 0 min 0 min 0 W/m 3,2 km/h (1 Bft) 100,00 %
23.11.2019 07:08 3,9 C 2,8 C 2,2 C 93 % 999,5 hPa 0,0 l/m 0 min 0 min 0 W/m 0,0 km/h (0 Bft) 100,00 %
23.11.2019 07:10 3,9 C 2,8 C 2,2 C 93 % 999,5 hPa 0,0 l/m 0 min 0 min 0 W/m 0,0 km/h (0 Bft) 100,00 %
23.11.2019 07:12 3,9 C 2,8 C 2,2 C 93 % 999,5 hPa 0,0 l/m 0 min 0 min 0 W/m 0,0 km/h (0 Bft) 100,00 %
23.11.2019 07:14 3,9 C 2,8 C 2,2 C 93 % 999,5 hPa 0,0 l/m 0 min 0 min 0 W/m 0,0 km/h (0 Bft) 100,00 %
23.11.2019 07:16 3,8 C 2,8 C 2,2 C 93 % 999,5 hPa 0,0 l/m 0 min 0 min 0 W/m 0,0 km/h (0 Bft) 100,00 %
23.11.2019 07:18 3,8 C 2,2 C 2,2 C 93 % 999,4 hPa 0,0 l/m 0 min 0 min 0 W/m 0,0 km/h (0 Bft) 97,87 %
23.11.2019 07:20 3,8 C 2,2 C 2,2 C 93 % 999,4 hPa 0,0 l/m 0 min 0 min 0 W/m 0,0 km/h (0 Bft) 97,83 %
23.11.2019 07:22 3,7 C 2,2 C 2,2 C 93 % 999,4 hPa 0,0 l/m 0 min 0 min 0 W/m 0,0 km/h (0 Bft) 97,87 %
23.11.2019 07:24 3,7 C 2,2 C 2,2 C 93 % 999,4 hPa 0,0 l/m 0 min 0 min 0 W/m 0,0 km/h (0 Bft) 97,87 %
23.11.2019 07:26 3,7 C 2,2 C 2,2 C 93 % 999,4 hPa 0,0 l/m 0 min 0 min 0 W/m 3,2 km/h (1 Bft) 95,74 %
23.11.2019 07:28 3,7 C 2,2 C 2,2 C 93 % 999,5 hPa 0,0 l/m 0 min 0 min 0 W/m 0,0 km/h (0 Bft) 91,49 %
23.11.2019 07:30 3,6 C 2,2 C 2,2 C 93 % 999,5 hPa 0,0 l/m 0 min 0 min 0 W/m 0,0 km/h (0 Bft) 97,87 %
23.11.2019 07:32 3,6 C 2,2 C 2,2 C 93 % 999,4 hPa 0,0 l/m 0 min 0 min 0 W/m 0,0 km/h (0 Bft) 95,65 %
23.11.2019 07:34 3,6 C 2,2 C 2,2 C 93 % 999,5 hPa 0,0 l/m 0 min 0 min 0 W/m 3,2 km/h (1 Bft) 97,87 %
23.11.2019 07:36 3,6 C 2,2 C 2,2 C 93 % 999,5 hPa 0,0 l/m 0 min 0 min 0 W/m 0,0 km/h (0 Bft) 97,87 %
23.11.2019 07:38 3,6 C 2,2 C 2,2 C 93 % 999,5 hPa 0,0 l/m 0 min 0 min 0 W/m 0,0 km/h (0 Bft) 95,74 %
23.11.2019 07:40 3,5 C 2,2 C 2,2 C 93 % 999,5 hPa 0,0 l/m 0 min 0 min 0 W/m 3,2 km/h (1 Bft) 97,87 %
23.11.2019 07:42 3,5 C 2,2 C 2,2 C 93 % 999,5 hPa 0,0 l/m 0 min 0 min 0 W/m 3,2 km/h (1 Bft) 95,65 %
23.11.2019 07:44 3,5 C 2,2 C 2,2 C 93 % 999,5 hPa 0,0 l/m 0 min 0 min 0 W/m 0,0 km/h (0 Bft) 97,87 %
23.11.2019 07:46 3,4 C 2,2 C 2,2 C 93 % 999,4 hPa 0,0 l/m 0 min 0 min 0 W/m 0,0 km/h (0 Bft) 97,87 %
23.11.2019 07:48 3,4 C 2,2 C 2,2 C 94 % 999,4 hPa 0,0 l/m 0 min 0 min 0 W/m 3,2 km/h (1 Bft) 95,74 %
23.11.2019 07:50 3,4 C 2,2 C 2,2 C 94 % 999,4 hPa 0,0 l/m 0 min 0 min 0 W/m 3,2 km/h (1 Bft) 93,62 %
23.11.2019 07:52 3,4 C 2,2 C 2,2 C 93 % 999,3 hPa 0,0 l/m 0 min 0 min 0 W/m 3,2 km/h (1 Bft) 95,74 %
23.11.2019 07:54 3,4 C 2,2 C 2,2 C 94 % 999,3 hPa 0,0 l/m 0 min 0 min 0 W/m 0,0 km/h (0 Bft) 95,65 %
23.11.2019 07:56 3,4 C 2,2 C 2,2 C 94 % 999,4 hPa 0,0 l/m 0 min 0 min 0 W/m 3,2 km/h (1 Bft) 95,74 %
23.11.2019 07:58 3,4 C 2,2 C 2,2 C 94 % 999,4 hPa 0,0 l/m 0 min 0 min 0 W/m 0,0 km/h (0 Bft) 93,62 %
23.11.2019 08:00 3,3 C 2,2 C 2,2 C 94 % 999,4 hPa 0,0 l/m 0 min 0 min 0 W/m 0,0 km/h (0 Bft) 95,74 %
23.11.2019 08:02 3,3 C 2,2 C 2,2 C 94 % 999,4 hPa 0,0 l/m 0 min 0 min 0 W/m 0,0 km/h (0 Bft) 95,74 %
23.11.2019 08:04 3,3 C 2,8 C 2,2 C 94 % 999,4 hPa 0,0 l/m 0 min 0 min 0 W/m 0,0 km/h (0 Bft) 95,74 %
23.11.2019 08:06 3,3 C 2,8 C 2,2 C 94 % 999,4 hPa 0,0 l/m 0 min 0 min 0 W/m 0,0 km/h (0 Bft) 97,83 %
23.11.2019 08:08 3,3 C 2,8 C 2,2 C 94 % 999,4 hPa 0,0 l/m 0 min 0 min 0 W/m 0,0 km/h (0 Bft) 93,62 %
23.11.2019 08:10 3,3 C 2,8 C 2,2 C 94 % 999,4 hPa 0,0 l/m 0 min 0 min 0 W/m 0,0 km/h (0 Bft) 97,87 %
23.11.2019 08:12 3,3 C 2,8 C 2,2 C 94 % 999,3 hPa 0,0 l/m 0 min 0 min 0 W/m 0,0 km/h (0 Bft) 95,74 %
23.11.2019 08:14 3,3 C 2,8 C 2,2 C 94 % 999,2 hPa 0,0 l/m 0 min 0 min 3 W/m 0,0 km/h (0 Bft) 97,87 %
23.11.2019 08:16 3,3 C 2,8 C 2,2 C 94 % 999,3 hPa 0,0 l/m 0 min 0 min 5 W/m 0,0 km/h (0 Bft) 95,74 %
23.11.2019 08:18 3,3 C 2,8 C 2,2 C 94 % 999,3 hPa 0,0 l/m 0 min 0 min 7 W/m 3,2 km/h (1 Bft) 95,65 %
23.11.2019 08:20 3,3 C 2,8 C 2,2 C 94 % 999,3 hPa 0,0 l/m 0 min 0 min 7 W/m 0,0 km/h (0 Bft) 97,87 %
23.11.2019 08:22 3,3 C 2,8 C 2,2 C 94 % 999,3 hPa 0,0 l/m 0 min 0 min 9 W/m 0,0 km/h (0 Bft) 97,87 %
23.11.2019 08:24 3,3 C 2,8 C 2,2 C 94 % 999,4 hPa 0,0 l/m 0 min 0 min 11 W/m 0,0 km/h (0 Bft) 97,87 %
23.11.2019 08:26 3,3 C 2,8 C 2,2 C 94 % 999,4 hPa 0,0 l/m 0 min 0 min 11 W/m 0,0 km/h (0 Bft) 97,87 %
23.11.2019 08:28 3,3 C 2,8 C 2,2 C 94 % 999,4 hPa 0,0 l/m 0 min 0 min 12 W/m 0,0 km/h (0 Bft) 97,87 %
23.11.2019 08:30 3,3 C 2,8 C 2,2 C 94 % 999,4 hPa 0,0 l/m 0 min 0 min 13 W/m 0,0 km/h (0 Bft) 93,48 %
23.11.2019 08:32 3,3 C 2,8 C 2,2 C 94 % 999,5 hPa 0,0 l/m 0 min 0 min 14 W/m 0,0 km/h (0 Bft) 97,87 %
23.11.2019 08:34 3,3 C 2,8 C 2,2 C 94 % 999,4 hPa 0,0 l/m 0 min 0 min 16 W/m 0,0 km/h (0 Bft) 97,87 %
23.11.2019 08:36 3,3 C 2,8 C 2,8 C 94 % 999,4 hPa 0,0 l/m 0 min 0 min 18 W/m 0,0 km/h (0 Bft) 95,74 %
23.11.2019 08:38 3,3 C 2,8 C 2,8 C 95 % 999,4 hPa 0,0 l/m 0 min 0 min 19 W/m 0,0 km/h (0 Bft) 95,74 %
23.11.2019 08:40 3,3 C 3,3 C 2,8 C 95 % 999,4 hPa 0,0 l/m 0 min 0 min 22 W/m 0,0 km/h (0 Bft) 95,74 %
23.11.2019 08:42 3,3 C 3,3 C 2,8 C 95 % 999,4 hPa 0,0 l/m 0 min 0 min 24 W/m 0,0 km/h (0 Bft) 97,83 %
23.11.2019 08:44 3,3 C 3,3 C 2,8 C 95 % 999,4 hPa 0,0 l/m 0 min 0 min 26 W/m 0,0 km/h (0 Bft) 97,87 %
23.11.2019 08:46 3,3 C 3,3 C 2,8 C 95 % 999,4 hPa 0,0 l/m 0 min 0 min 29 W/m 0,0 km/h (0 Bft) 93,62 %
23.11.2019 08:48 3,3 C 3,3 C 2,8 C 95 % 999,3 hPa 0,0 l/m 0 min 0 min 32 W/m 0,0 km/h (0 Bft) 97,87 %
23.11.2019 08:50 3,4 C 3,3 C 2,8 C 95 % 999,3 hPa 0,0 l/m 0 min 0 min 33 W/m 0,0 km/h (0 Bft) 95,74 %
23.11.2019 08:52 3,4 C 3,3 C 2,8 C 95 % 999,3 hPa 0,0 l/m 0 min 0 min 35 W/m 0,0 km/h (0 Bft) 95,65 %
23.11.2019 08:54 3,4 C 3,3 C 2,8 C 95 % 999,3 hPa 0,0 l/m 0 min 0 min 38 W/m 0,0 km/h (0 Bft) 95,74 %
23.11.2019 08:56 3,4 C 3,3 C 2,8 C 95 % 999,3 hPa 0,0 l/m 0 min 0 min 41 W/m 0,0 km/h (0 Bft) 97,87 %
23.11.2019 08:58 3,4 C 3,3 C 2,8 C 95 % 999,3 hPa 0,0 l/m 0 min 0 min 42 W/m 0,0 km/h (0 Bft) 97,87 %
23.11.2019 09:00 3,4 C 3,3 C 2,8 C 95 % 999,3 hPa 0,0 l/m 0 min 0 min 43 W/m 0,0 km/h (0 Bft) 95,74 %
23.11.2019 09:02 3,5 C 3,3 C 2,8 C 95 % 999,3 hPa 0,0 l/m 0 min 0 min 44 W/m 0,0 km/h (0 Bft) 97,87 %
23.11.2019 09:04 3,5 C 3,3 C 2,8 C 95 % 999,3 hPa 0,0 l/m 0 min 0 min 44 W/m 0,0 km/h (0 Bft) 95,65 %
23.11.2019 09:06 3,5 C 3,3 C 2,8 C 95 % 999,3 hPa 0,0 l/m 0 min 0 min 44 W/m 0,0 km/h (0 Bft) 97,87 %
23.11.2019 09:08 3,6 C 3,3 C 2,8 C 95 % 999,3 hPa 0,0 l/m 0 min 0 min 44 W/m 0,0 km/h (0 Bft) 95,74 %
23.11.2019 09:10 3,6 C 3,3 C 2,8 C 95 % 999,3 hPa 0,0 l/m 0 min 0 min 46 W/m 0,0 km/h (0 Bft) 95,74 %
23.11.2019 09:12 3,6 C 3,3 C 2,8 C 95 % 999,4 hPa 0,0 l/m 0 min 0 min 47 W/m 0,0 km/h (0 Bft) 97,87 %
23.11.2019 09:14 3,6 C 3,3 C 2,8 C 95 % 999,3 hPa 0,0 l/m 0 min 0 min 48 W/m 3,2 km/h (1 Bft) 97,87 %
23.11.2019 09:16 3,6 C 3,3 C 2,8 C 95 % 999,4 hPa 0,0 l/m 0 min 0 min 52 W/m 0,0 km/h (0 Bft) 95,65 %
23.11.2019 09:18 3,6 C 3,3 C 2,8 C 95 % 999,3 hPa 0,0 l/m 0 min 0 min 54 W/m 0,0 km/h (0 Bft) 95,74 %
23.11.2019 09:20 3,6 C 3,3 C 2,8 C 95 % 999,3 hPa 0,0 l/m 0 min 0 min 54 W/m 3,2 km/h (1 Bft) 97,87 %
23.11.2019 09:22 3,6 C 3,9 C 2,8 C 95 % 999,3 hPa 0,0 l/m 0 min 0 min 54 W/m 0,0 km/h (0 Bft) 97,87 %
23.11.2019 09:24 3,6 C 3,9 C 2,8 C 95 % 999,3 hPa 0,0 l/m 0 min 0 min 56 W/m 0,0 km/h (0 Bft) 97,87 %
23.11.2019 09:26 3,6 C 3,9 C 2,8 C 95 % 999,3 hPa 0,0 l/m 0 min 0 min 56 W/m 0,0 km/h (0 Bft) 95,65 %
23.11.2019 09:28 3,6 C 3,9 C 2,8 C 95 % 999,3 hPa 0,0 l/m 0 min 0 min 56 W/m 0,0 km/h (0 Bft) 97,87 %
23.11.2019 09:30 3,6 C 3,9 C 2,8 C 95 % 999,2 hPa 0,0 l/m 0 min 0 min 56 W/m 0,0 km/h (0 Bft) 97,87 %
23.11.2019 09:32 3,6 C 3,9 C 2,8 C 95 % 999,2 hPa 0,0 l/m 0 min 0 min 60 W/m 0,0 km/h (0 Bft) 95,74 %
23.11.2019 09:34 3,6 C 3,9 C 2,8 C 95 % 999,2 hPa 0,0 l/m 0 min 0 min 63 W/m 0,0 km/h (0 Bft) 100,00 %
23.11.2019 09:36 3,6 C 3,9 C 2,8 C 95 % 999,3 hPa 0,0 l/m 0 min 0 min 67 W/m 0,0 km/h (0 Bft) 100,00 %
23.11.2019 09:38 3,6 C 3,9 C 2,8 C 95 % 999,3 hPa 0,0 l/m 0 min 0 min 70 W/m 0,0 km/h (0 Bft) 100,00 %
23.11.2019 09:40 3,6 C 3,9 C 2,8 C 95 % 999,2 hPa 0,0 l/m 0 min 0 min 75 W/m 0,0 km/h (0 Bft) 100,00 %
23.11.2019 09:42 3,6 C 4,4 C 3,3 C 96 % 999,2 hPa 0,0 l/m 0 min 0 min 82 W/m 0,0 km/h (0 Bft) 100,00 %
23.11.2019 09:44 3,7 C 4,4 C 3,3 C 96 % 999,2 hPa 0,0 l/m 0 min 0 min 88 W/m 0,0 km/h (0 Bft) 100,00 %
23.11.2019 09:46 3,7 C 4,4 C 3,3 C 96 % 999,2 hPa 0,0 l/m 2 min 0 min 95 W/m 0,0 km/h (0 Bft) 97,87 %
23.11.2019 09:48 3,7 C 5,0 C 3,3 C 96 % 999,1 hPa 0,0 l/m 2 min 0 min 102 W/m 0,0 km/h (0 Bft) 91,49 %
23.11.2019 09:50 3,7 C 5,0 C 3,9 C 96 % 999,1 hPa 0,0 l/m 2 min 0 min 109 W/m 0,0 km/h (0 Bft) 62,79 %
23.11.2019 09:52 3,8 C 5,0 C 3,9 C 96 % 999,2 hPa 0,0 l/m 2 min 0 min 115 W/m 6,4 km/h (2 Bft) 100,00 %
23.11.2019 09:54 3,8 C 5,6 C 3,9 C 96 % 999,3 hPa 0,0 l/m 2 min 0 min 127 W/m 3,2 km/h (1 Bft) 95,74 %
23.11.2019 09:56 3,9 C 5,6 C 3,9 C 96 % 999,2 hPa 0,0 l/m 2 min 0 min 125 W/m 0,0 km/h (0 Bft) 91,49 %
23.11.2019 09:58 3,9 C 6,1 C 3,9 C 96 % 999,2 hPa 0,0 l/m 2 min 0 min 137 W/m 0,0 km/h (0 Bft) 97,87 %
23.11.2019 10:00 3,9 C 6,1 C 4,4 C 96 % 999,3 hPa 0,0 l/m 2 min 0 min 143 W/m 0,0 km/h (0 Bft) 95,74 %
23.11.2019 10:02 4,0 C 6,7 C 4,4 C 96 % 999,3 hPa 0,0 l/m 2 min 0 min 130 W/m 0,0 km/h (0 Bft) 97,83 %
23.11.2019 10:04 4,1 C 6,1 C 4,4 C 96 % 999,3 hPa 0,0 l/m 2 min 0 min 109 W/m 0,0 km/h (0 Bft) 97,87 %
23.11.2019 10:06 4,1 C 6,1 C 4,4 C 96 % 999,3 hPa 0,0 l/m 0 min 0 min 105 W/m 0,0 km/h (0 Bft) 97,87 %
23.11.2019 10:08 4,2 C 6,1 C 4,4 C 96 % 999,2 hPa 0,0 l/m 0 min 0 min 108 W/m 0,0 km/h (0 Bft) 95,74 %
23.11.2019 10:10 4,2 C 6,1 C 4,4 C 96 % 999,3 hPa 0,0 l/m 2 min 0 min 115 W/m 0,0 km/h (0 Bft) 97,87 %
23.11.2019 10:12 4,3 C 6,1 C 4,4 C 96 % 999,3 hPa 0,0 l/m 2 min 0 min 121 W/m 0,0 km/h (0 Bft) 97,87 %
23.11.2019 10:14 4,3 C 6,1 C 4,4 C 96 % 999,3 hPa 0,0 l/m 2 min 0 min 123 W/m 0,0 km/h (0 Bft) 93,48 %
23.11.2019 10:16 4,4 C 6,1 C 4,4 C 96 % 999,2 hPa 0,0 l/m 2 min 0 min 125 W/m 0,0 km/h (0 Bft) 97,87 %
23.11.2019 10:18 4,4 C 6,1 C 4,4 C 96 % 999,2 hPa 0,0 l/m 2 min 0 min 127 W/m 3,2 km/h (1 Bft) 97,87 %
23.11.2019 10:20 4,5 C 6,1 C 4,4 C 96 % 999,1 hPa 0,0 l/m 2 min 0 min 126 W/m 3,2 km/h (1 Bft) 97,87 %
23.11.2019 10:22 4,6 C 6,1 C 4,4 C 96 % 999,2 hPa 0,0 l/m 2 min 0 min 122 W/m 0,0 km/h (0 Bft) 97,87 %
23.11.2019 10:24 4,6 C 6,1 C 4,4 C 97 % 999,2 hPa 0,0 l/m 0 min 0 min 115 W/m 3,2 km/h (1 Bft) 97,87 %
23.11.2019 10:26 4,7 C 6,1 C 4,4 C 97 % 999,3 hPa 0,0 l/m 0 min 0 min 113 W/m 0,0 km/h (0 Bft) 95,65 %
23.11.2019 10:28 4,7 C 6,1 C 4,4 C 97 % 999,4 hPa 0,0 l/m 0 min 0 min 110 W/m 3,2 km/h (1 Bft) 97,87 %
23.11.2019 10:30 4,7 C 6,1 C 4,4 C 97 % 999,4 hPa 0,0 l/m 0 min 0 min 106 W/m 0,0 km/h (0 Bft) 95,74 %
23.11.2019 10:32 4,8 C 6,1 C 5,0 C 96 % 999,4 hPa 0,0 l/m 0 min 0 min 108 W/m 0,0 km/h (0 Bft) 95,74 %
23.11.2019 10:34 4,8 C 6,1 C 5,0 C 96 % 999,4 hPa 0,0 l/m 0 min 0 min 113 W/m 0,0 km/h (0 Bft) 100,00 %
23.11.2019 10:36 4,8 C 6,1 C 5,0 C 96 % 999,4 hPa 0,0 l/m 0 min 0 min 117 W/m 3,2 km/h (1 Bft) 100,00 %
23.11.2019 10:38 4,9 C 6,1 C 5,0 C 96 % 999,5 hPa 0,0 l/m 0 min 0 min 118 W/m 0,0 km/h (0 Bft) 100,00 %
23.11.2019 10:40 4,9 C 6,1 C 5,0 C 96 % 999,4 hPa 0,0 l/m 0 min 0 min 118 W/m 0,0 km/h (0 Bft) 100,00 %
23.11.2019 10:42 5,0 C 6,1 C 5,0 C 96 % 999,4 hPa 0,0 l/m 0 min 0 min 118 W/m 0,0 km/h (0 Bft) 97,87 %
23.11.2019 10:44 5,0 C 6,1 C 5,0 C 96 % 999,5 hPa 0,0 l/m 0 min 0 min 118 W/m 0,0 km/h (0 Bft) 100,00 %
23.11.2019 10:46 5,1 C 6,7 C 5,6 C 96 % 999,5 hPa 0,0 l/m 0 min 0 min 116 W/m 0,0 km/h (0 Bft) 97,87 %
23.11.2019 10:48 5,1 C 6,7 C 5,6 C 96 % 999,5 hPa 0,0 l/m 0 min 0 min 115 W/m 0,0 km/h (0 Bft) 95,65 %
23.11.2019 10:50 5,1 C 6,7 C 5,6 C 96 % 999,5 hPa 0,0 l/m 0 min 0 min 113 W/m 0,0 km/h (0 Bft) 97,87 %
23.11.2019 10:52 5,2 C 6,7 C 5,6 C 96 % 999,5 hPa 0,0 l/m 0 min 0 min 116 W/m 0,0 km/h (0 Bft) 97,87 %
23.11.2019 10:54 5,2 C 6,7 C 5,6 C 96 % 999,5 hPa 0,0 l/m 0 min 0 min 121 W/m 0,0 km/h (0 Bft) 97,87 %
23.11.2019 10:56 5,3 C 6,7 C 5,6 C 96 % 999,5 hPa 0,0 l/m 0 min 0 min 123 W/m 0,0 km/h (0 Bft) 97,87 %
23.11.2019 10:58 5,3 C 6,7 C 5,6 C 96 % 999,5 hPa 0,0 l/m 0 min 0 min 126 W/m 0,0 km/h (0 Bft) 97,87 %
23.11.2019 11:00 5,3 C 6,7 C 5,6 C 96 % 999,4 hPa 0,0 l/m 0 min 0 min 130 W/m 3,2 km/h (1 Bft) 97,83 %
23.11.2019 11:02 5,4 C 6,7 C 5,6 C 96 % 999,3 hPa 0,0 l/m 0 min 0 min 134 W/m 6,4 km/h (2 Bft) 97,87 %
23.11.2019 11:04 5,4 C 6,7 C 5,6 C 96 % 999,3 hPa 0,0 l/m 0 min 0 min 134 W/m 3,2 km/h (1 Bft) 95,74 %
23.11.2019 11:06 5,4 C 6,7 C 5,6 C 96 % 999,3 hPa 0,0 l/m 0 min 0 min 137 W/m 3,2 km/h (1 Bft) 95,74 %
23.11.2019 11:08 5,5 C 6,7 C 5,6 C 96 % 999,3 hPa 0,0 l/m 0 min 0 min 141 W/m 3,2 km/h (1 Bft) 97,87 %
23.11.2019 11:10 5,6 C 6,7 C 5,6 C 96 % 999,4 hPa 0,0 l/m 2 min 0 min 150 W/m 0,0 km/h (0 Bft) 97,87 %
23.11.2019 11:12 5,6 C 7,2 C 5,6 C 96 % 999,4 hPa 0,0 l/m 2 min 0 min 177 W/m 3,2 km/h (1 Bft) 97,83 %
23.11.2019 11:14 5,6 C 7,8 C 6,1 C 96 % 999,4 hPa 0,0 l/m 2 min 0 min 194 W/m 0,0 km/h (0 Bft) 97,87 %
23.11.2019 11:16 5,7 C 8,3 C 6,1 C 96 % 999,5 hPa 0,0 l/m 2 min 0 min 220 W/m 3,2 km/h (1 Bft) 97,87 %
23.11.2019 11:18 5,7 C 8,3 C 6,1 C 96 % 999,5 hPa 0,0 l/m 2 min 0 min 181 W/m 0,0 km/h (0 Bft) 95,74 %
23.11.2019 11:20 5,8 C 7,8 C 6,1 C 96 % 999,5 hPa 0,0 l/m 2 min 0 min 160 W/m 3,2 km/h (1 Bft) 97,87 %
23.11.2019 11:22 5,8 C 7,8 C 6,1 C 96 % 999,4 hPa 0,0 l/m 2 min 0 min 156 W/m 0,0 km/h (0 Bft) 97,87 %
23.11.2019 11:24 5,8 C 7,2 C 6,1 C 96 % 999,5 hPa 0,0 l/m 0 min 0 min 148 W/m 3,2 km/h (1 Bft) 97,83 %
23.11.2019 11:26 5,9 C 7,2 C 6,1 C 95 % 999,5 hPa 0,0 l/m 0 min 0 min 140 W/m 3,2 km/h (1 Bft) 95,74 %
23.11.2019 11:28 5,9 C 7,2 C 6,1 C 95 % 999,3 hPa 0,0 l/m 0 min 0 min 131 W/m 3,2 km/h (1 Bft) 100,00 %
23.11.2019 11:30 6,0 C 6,7 C 6,1 C 95 % 999,3 hPa 0,0 l/m 0 min 0 min 124 W/m 3,2 km/h (1 Bft) 100,00 %
23.11.2019 11:32 6,0 C 6,7 C 6,1 C 95 % 999,3 hPa 0,0 l/m 0 min 0 min 124 W/m 3,2 km/h (1 Bft) 100,00 %
23.11.2019 11:34 6,1 C 6,7 C 6,1 C 95 % 999,3 hPa 0,0 l/m 0 min 0 min 128 W/m 3,2 km/h (1 Bft) 100,00 %
23.11.2019 11:36 6,1 C 6,7 C 6,1 C 95 % 999,3 hPa 0,0 l/m 0 min 0 min 136 W/m 0,0 km/h (0 Bft) 97,83 %
23.11.2019 11:38 6,1 C 7,2 C 6,1 C 95 % 999,2 hPa 0,0 l/m 0 min 0 min 148 W/m 3,2 km/h (1 Bft) 100,00 %
23.11.2019 11:40 6,2 C 7,2 C 6,1 C 94 % 999,3 hPa 0,0 l/m 0 min 0 min 154 W/m 3,2 km/h (1 Bft) 100,00 %
23.11.2019 11:42 6,2 C 7,8 C 6,7 C 94 % 999,2 hPa 0,0 l/m 0 min 0 min 154 W/m 6,4 km/h (2 Bft) 100,00 %
23.11.2019 11:44 6,2 C 7,8 C 6,7 C 94 % 999,3 hPa 0,0 l/m 0 min 0 min 146 W/m 0,0 km/h (0 Bft) 100,00 %
23.11.2019 11:46 6,3 C 7,8 C 6,7 C 94 % 999,3 hPa 0,0 l/m 0 min 0 min 134 W/m 0,0 km/h (0 Bft) 97,83 %
23.11.2019 11:48 6,3 C 7,8 C 6,7 C 94 % 999,3 hPa 0,0 l/m 0 min 0 min 127 W/m 0,0 km/h (0 Bft) 100,00 %
23.11.2019 11:50 6,4 C 7,8 C 6,7 C 94 % 999,3 hPa 0,0 l/m 0 min 0 min 125 W/m 0,0 km/h (0 Bft) 97,87 %
23.11.2019 11:52 6,4 C 7,8 C 6,7 C 94 % 999,2 hPa 0,0 l/m 0 min 0 min 132 W/m 0,0 km/h (0 Bft) 97,87 %
23.11.2019 11:54 6,5 C 8,3 C 6,7 C 94 % 999,2 hPa 0,0 l/m 2 min 0 min 163 W/m 0,0 km/h (0 Bft) 97,87 %
23.11.2019 11:56 6,6 C 9,4 C 6,7 C 94 % 999,1 hPa 0,0 l/m 2 min 0 min 255 W/m 0,0 km/h (0 Bft) 100,00 %
23.11.2019 11:58 6,6 C 10,0 C 7,2 C 94 % 999,1 hPa 0,0 l/m 2 min 0 min 236 W/m 0,0 km/h (0 Bft) 100,00 %
23.11.2019 12:00 6,7 C 9,4 C 7,2 C 94 % 999,0 hPa 0,0 l/m 2 min 0 min 171 W/m 3,2 km/h (1 Bft) 100,00 %
23.11.2019 12:02 6,8 C 10,0 C 7,2 C 94 % 999,0 hPa 0,0 l/m 2 min 0 min 221 W/m 9,7 km/h (2 Bft) 95,74 %
23.11.2019 12:04 6,8 C 10,0 C 7,2 C 94 % 999,0 hPa 0,0 l/m 2 min 0 min 257 W/m 3,2 km/h (1 Bft) 93,62 %
23.11.2019 12:06 6,9 C 11,1 C 7,2 C 94 % 998,9 hPa 0,0 l/m 2 min 0 min 307 W/m 3,2 km/h (1 Bft) 97,87 %
23.11.2019 12:08 7,0 C 11,1 C 7,8 C 94 % 998,9 hPa 0,0 l/m 2 min 0 min 272 W/m 3,2 km/h (1 Bft) 97,87 %
23.11.2019 12:10 7,1 C 11,7 C 7,8 C 94 % 998,8 hPa 0,0 l/m 2 min 0 min 295 W/m 3,2 km/h (1 Bft) 93,48 %
23.11.2019 12:12 7,2 C 11,7 C 8,3 C 94 % 998,8 hPa 0,0 l/m 2 min 0 min 315 W/m 3,2 km/h (1 Bft) 95,74 %
23.11.2019 12:14 7,3 C 12,2 C 8,9 C 94 % 998,8 hPa 0,0 l/m 2 min 0 min 296 W/m 3,2 km/h (1 Bft) 97,87 %
23.11.2019 12:16 7,4 C 12,2 C 9,4 C 93 % 998,7 hPa 0,0 l/m 2 min 0 min 297 W/m 3,2 km/h (1 Bft) 97,87 %
23.11.2019 12:18 7,6 C 11,7 C 8,9 C 93 % 998,7 hPa 0,0 l/m 2 min 0 min 233 W/m 6,4 km/h (2 Bft) 97,87 %
23.11.2019 12:20 7,6 C 10,6 C 8,3 C 93 % 998,6 hPa 0,0 l/m 2 min 0 min 160 W/m 3,2 km/h (1 Bft) 95,74 %
23.11.2019 12:22 7,7 C 10,0 C 7,8 C 93 % 998,6 hPa 0,0 l/m 0 min 0 min 152 W/m 6,4 km/h (2 Bft) 95,65 %
23.11.2019 12:24 7,7 C 9,4 C 7,8 C 92 % 998,5 hPa 0,0 l/m 0 min 0 min 156 W/m 0,0 km/h (0 Bft) 95,74 %
23.11.2019 12:26 7,8 C 9,4 C 7,2 C 92 % 998,5 hPa 0,0 l/m 0 min 0 min 144 W/m 3,2 km/h (1 Bft) 95,74 %
23.11.2019 12:28 7,8 C 9,4 C 7,2 C 92 % 998,6 hPa 0,0 l/m 0 min 0 min 128 W/m 0,0 km/h (0 Bft) 93,62 %
23.11.2019 12:30 7,8 C 9,4 C 7,2 C 91 % 998,6 hPa 0,0 l/m 0 min 0 min 123 W/m 3,2 km/h (1 Bft) 95,74 %
23.11.2019 12:32 7,9 C 10,0 C 7,2 C 91 % 998,6 hPa 0,0 l/m 2 min 0 min 191 W/m 6,4 km/h (2 Bft) 95,74 %
23.11.2019 12:34 7,9 C 10,6 C 7,2 C 91 % 998,6 hPa 0,0 l/m 2 min 0 min 229 W/m 3,2 km/h (1 Bft) 95,65 %
23.11.2019 12:36 7,9 C 10,6 C 7,2 C 91 % 998,5 hPa 0,0 l/m 2 min 0 min 192 W/m 0,0 km/h (0 Bft) 93,62 %
23.11.2019 12:38 8,0 C 11,1 C 7,2 C 91 % 998,5 hPa 0,0 l/m 2 min 0 min 229 W/m 3,2 km/h (1 Bft) 95,74 %
23.11.2019 12:40 8,0 C 11,7 C 7,2 C 90 % 998,4 hPa 0,0 l/m 2 min 0 min 276 W/m 3,2 km/h (1 Bft) 97,87 %
23.11.2019 12:42 8,1 C 12,2 C 7,8 C 90 % 998,5 hPa 0,0 l/m 2 min 0 min 310 W/m 3,2 km/h (1 Bft) 95,74 %
23.11.2019 12:44 8,1 C 12,8 C 7,8 C 90 % 998,5 hPa 0,0 l/m 2 min 0 min 302 W/m 3,2 km/h (1 Bft) 97,83 %
23.11.2019 12:46 8,2 C 12,8 C 7,8 C 90 % 998,5 hPa 0,0 l/m 2 min 0 min 296 W/m 0,0 km/h (0 Bft) 95,74 %
23.11.2019 12:48 8,3 C 12,8 C 8,3 C 90 % 998,5 hPa 0,0 l/m 2 min 0 min 305 W/m 3,2 km/h (1 Bft) 100,00 %
23.11.2019 12:50 8,4 C 12,8 C 8,3 C 90 % 998,4 hPa 0,0 l/m 2 min 0 min 287 W/m 6,4 km/h (2 Bft) 95,74 %
23.11.2019 12:52 8,5 C 12,2 C 8,3 C 90 % 998,3 hPa 0,0 l/m 2 min 0 min 227 W/m 3,2 km/h (1 Bft) 97,87 %
23.11.2019 12:54 8,6 C 11,7 C 8,3 C 89 % 998,2 hPa 0,0 l/m 2 min 0 min 216 W/m 3,2 km/h (1 Bft) 97,87 %
23.11.2019 12:56 8,6 C 11,1 C 7,8 C 89 % 998,2 hPa 0,0 l/m 2 min 0 min 157 W/m 3,2 km/h (1 Bft) 97,83 %
23.11.2019 12:58 8,7 C 10,6 C 7,8 C 89 % 998,2 hPa 0,0 l/m 0 min 0 min 149 W/m 6,4 km/h (2 Bft) 97,87 %
23.11.2019 13:00 8,7 C 10,0 C 7,8 C 89 % 998,2 hPa 0,0 l/m 0 min 0 min 146 W/m 3,2 km/h (1 Bft) 95,74 %
23.11.2019 13:02 8,7 C 9,4 C 7,8 C 88 % 998,2 hPa 0,0 l/m 0 min 0 min 146 W/m 3,2 km/h (1 Bft) 95,74 %
23.11.2019 13:04 8,7 C 9,4 C 7,8 C 88 % 998,2 hPa 0,0 l/m 0 min 0 min 146 W/m 0,0 km/h (0 Bft) 95,74 %
23.11.2019 13:06 8,7 C 9,4 C 7,8 C 88 % 998,2 hPa 0,0 l/m 0 min 0 min 145 W/m 3,2 km/h (1 Bft) 93,62 %
23.11.2019 13:08 8,7 C 8,9 C 7,8 C 88 % 998,2 hPa 0,0 l/m 0 min 0 min 143 W/m 6,4 km/h (2 Bft) 95,65 %
23.11.2019 13:10 8,7 C 8,9 C 7,8 C 88 % 998,2 hPa 0,0 l/m 0 min 0 min 141 W/m 3,2 km/h (1 Bft) 95,74 %
23.11.2019 13:12 8,7 C 8,9 C 7,8 C 87 % 998,2 hPa 0,0 l/m 0 min 0 min 141 W/m 0,0 km/h (0 Bft) 95,74 %
23.11.2019 13:14 8,7 C 8,9 C 7,8 C 87 % 998,3 hPa 0,0 l/m 0 min 0 min 141 W/m 3,2 km/h (1 Bft) 93,62 %
23.11.2019 13:16 8,7 C 8,9 C 7,8 C 87 % 998,3 hPa 0,0 l/m 0 min 0 min 139 W/m 3,2 km/h (1 Bft) 93,62 %
23.11.2019 13:18 8,6 C 8,9 C 7,8 C 87 % 998,3 hPa 0,0 l/m 0 min 0 min 134 W/m 3,2 km/h (1 Bft) 93,62 %
23.11.2019 13:20 8,6 C 8,9 C 7,8 C 87 % 998,4 hPa 0,0 l/m 0 min 0 min 131 W/m 3,2 km/h (1 Bft) 95,65 %
23.11.2019 13:22 8,6 C 8,9 C 7,8 C 87 % 998,4 hPa 0,0 l/m 0 min 0 min 134 W/m 3,2 km/h (1 Bft) 95,74 %
23.11.2019 13:24 8,6 C 8,9 C 7,8 C 87 % 998,4 hPa 0,0 l/m 0 min 0 min 141 W/m 0,0 km/h (0 Bft) 95,74 %
23.11.2019 13:26 8,6 C 9,4 C 7,8 C 87 % 998,4 hPa 0,0 l/m 0 min 0 min 145 W/m 0,0 km/h (0 Bft) 95,74 %
23.11.2019 13:28 8,6 C 9,4 C 7,8 C 87 % 998,5 hPa 0,0 l/m 0 min 0 min 142 W/m 3,2 km/h (1 Bft) 93,62 %
23.11.2019 13:30 8,7 C 9,4 C 7,8 C 87 % 998,5 hPa 0,0 l/m 0 min 0 min 131 W/m 3,2 km/h (1 Bft) 95,74 %
23.11.2019 13:32 8,7 C 8,9 C 7,8 C 88 % 998,5 hPa 0,0 l/m 0 min 0 min 119 W/m 0,0 km/h (0 Bft) 95,65 %
23.11.2019 13:34 8,7 C 8,9 C 7,8 C 88 % 998,5 hPa 0,0 l/m 0 min 0 min 103 W/m 3,2 km/h (1 Bft) 95,74 %
23.11.2019 13:36 8,7 C 8,9 C 7,8 C 88 % 998,4 hPa 0,0 l/m 0 min 0 min 94 W/m 3,2 km/h (1 Bft) 95,74 %
23.11.2019 13:38 8,7 C 8,9 C 7,8 C 88 % 998,4 hPa 0,0 l/m 0 min 0 min 82 W/m 3,2 km/h (1 Bft) 97,87 %
23.11.2019 13:40 8,7 C 8,3 C 7,8 C 88 % 998,4 hPa 0,0 l/m 0 min 0 min 75 W/m 0,0 km/h (0 Bft) 97,87 %
23.11.2019 13:42 8,7 C 8,3 C 7,2 C 88 % 998,5 hPa 0,0 l/m 0 min 0 min 71 W/m 0,0 km/h (0 Bft) 100,00 %
23.11.2019 13:44 8,7 C 8,3 C 7,2 C 88 % 998,4 hPa 0,0 l/m 0 min 0 min 68 W/m 0,0 km/h (0 Bft) 97,87 %
23.11.2019 13:46 8,7 C 8,3 C 7,2 C 88 % 998,4 hPa 0,0 l/m 0 min 0 min 66 W/m 0,0 km/h (0 Bft) 97,87 %
23.11.2019 13:48 8,7 C 8,3 C 7,2 C 88 % 998,4 hPa 0,0 l/m 0 min 0 min 65 W/m 0,0 km/h (0 Bft) 100,00 %
23.11.2019 13:50 8,7 C 8,3 C 7,2 C 88 % 998,4 hPa 0,0 l/m 0 min 0 min 67 W/m 0,0 km/h (0 Bft) 100,00 %
23.11.2019 13:52 8,7 C 8,3 C 7,2 C 88 % 998,4 hPa 0,0 l/m 0 min 0 min 69 W/m 0,0 km/h (0 Bft) 100,00 %
23.11.2019 13:54 8,7 C 8,3 C 7,2 C 88 % 998,3 hPa 0,0 l/m 0 min 0 min 72 W/m 0,0 km/h (0 Bft) 97,83 %
23.11.2019 13:56 8,7 C 8,3 C 7,2 C 88 % 998,2 hPa 0,0 l/m 0 min 0 min 76 W/m 0,0 km/h (0 Bft) 100,00 %
23.11.2019 13:58 8,7 C 8,3 C 7,2 C 88 % 998,2 hPa 0,0 l/m 0 min 0 min 78 W/m 3,2 km/h (1 Bft) 100,00 %
23.11.2019 14:00 8,7 C 8,3 C 7,2 C 88 % 998,1 hPa 0,0 l/m 0 min 0 min 78 W/m 0,0 km/h (0 Bft) 100,00 %
23.11.2019 14:02 8,7 C 8,3 C 7,2 C 88 % 998,0 hPa 0,0 l/m 0 min 0 min 76 W/m 0,0 km/h (0 Bft) 100,00 %
23.11.2019 14:04 8,7 C 8,3 C 7,2 C 88 % 997,9 hPa 0,0 l/m 0 min 0 min 76 W/m 3,2 km/h (1 Bft) 100,00 %
23.11.2019 14:06 8,7 C 8,3 C 7,2 C 88 % 997,9 hPa 0,0 l/m 0 min 0 min 76 W/m 0,0 km/h (0 Bft) 100,00 %
23.11.2019 14:08 8,7 C 8,3 C 7,2 C 88 % 997,9 hPa 0,0 l/m 0 min 0 min 72 W/m 3,2 km/h (1 Bft) 100,00 %
23.11.2019 14:10 8,7 C 8,3 C 7,2 C 88 % 997,9 hPa 0,0 l/m 0 min 0 min 70 W/m 3,2 km/h (1 Bft) 93,62 %
23.11.2019 14:12 8,6 C 8,3 C 7,2 C 88 % 997,9 hPa 0,0 l/m 0 min 0 min 70 W/m 0,0 km/h (0 Bft) 97,87 %
23.11.2019 14:14 8,6 C 8,3 C 7,2 C 88 % 997,9 hPa 0,0 l/m 0 min 0 min 70 W/m 0,0 km/h (0 Bft) 100,00 %
23.11.2019 14:16 8,6 C 8,3 C 7,2 C 88 % 997,9 hPa 0,0 l/m 0 min 0 min 72 W/m 3,2 km/h (1 Bft) 93,62 %
23.11.2019 14:18 8,6 C 8,9 C 7,2 C 88 % 997,9 hPa 0,0 l/m 0 min 0 min 74 W/m 0,0 km/h (0 Bft) 97,83 %
23.11.2019 14:20 8,6 C 8,9 C 7,2 C 88 % 998,0 hPa 0,0 l/m 0 min 0 min 76 W/m 0,0 km/h (0 Bft) 95,74 %
23.11.2019 14:22 8,6 C 8,9 C 7,2 C 88 % 997,9 hPa 0,0 l/m 0 min 0 min 73 W/m 0,0 km/h (0 Bft) 97,87 %
23.11.2019 14:24 8,6 C 8,9 C 7,2 C 88 % 997,9 hPa 0,0 l/m 0 min 0 min 67 W/m 0,0 km/h (0 Bft) 97,87 %
23.11.2019 14:26 8,6 C 8,3 C 7,2 C 88 % 997,8 hPa 0,0 l/m 0 min 0 min 62 W/m 0,0 km/h (0 Bft) 97,87 %
23.11.2019 14:28 8,6 C 8,3 C 7,2 C 88 % 997,9 hPa 0,0 l/m 0 min 0 min 57 W/m 0,0 km/h (0 Bft) 95,74 %
23.11.2019 14:30 8,6 C 8,3 C 7,2 C 88 % 998,0 hPa 0,0 l/m 0 min 0 min 54 W/m 0,0 km/h (0 Bft) 97,83 %
23.11.2019 14:32 8,6 C 8,3 C 6,7 C 88 % 998,0 hPa 0,0 l/m 0 min 0 min 54 W/m 0,0 km/h (0 Bft) 97,87 %
23.11.2019 14:34 8,6 C 8,3 C 6,7 C 88 % 998,0 hPa 0,0 l/m 0 min 0 min 53 W/m 0,0 km/h (0 Bft) 95,74 %
23.11.2019 14:36 8,6 C 8,3 C 6,7 C 88 % 997,9 hPa 0,0 l/m 0 min 0 min 51 W/m 0,0 km/h (0 Bft) 97,87 %
23.11.2019 14:38 8,6 C 8,3 C 6,7 C 88 % 997,9 hPa 0,0 l/m 0 min 0 min 53 W/m 0,0 km/h (0 Bft) 95,74 %
23.11.2019 14:40 8,6 C 8,3 C 6,7 C 88 % 997,9 hPa 0,0 l/m 0 min 0 min 56 W/m 0,0 km/h (0 Bft) 97,83 %
23.11.2019 14:42 8,6 C 8,3 C 6,7 C 88 % 997,9 hPa 0,0 l/m 0 min 0 min 56 W/m 3,2 km/h (1 Bft) 97,87 %
23.11.2019 14:44 8,6 C 8,3 C 6,7 C 88 % 997,9 hPa 0,0 l/m 0 min 0 min 51 W/m 3,2 km/h (1 Bft) 97,87 %
23.11.2019 14:46 8,6 C 7,8 C 6,7 C 88 % 997,9 hPa 0,0 l/m 0 min 0 min 46 W/m 0,0 km/h (0 Bft) 95,74 %
23.11.2019 14:48 8,6 C 7,8 C 6,7 C 88 % 997,8 hPa 0,0 l/m 0 min 0 min 43 W/m 0,0 km/h (0 Bft) 97,87 %
23.11.2019 14:50 8,6 C 7,8 C 6,7 C 88 % 997,8 hPa 0,0 l/m 0 min 0 min 42 W/m 0,0 km/h (0 Bft) 97,87 %
23.11.2019 14:52 8,6 C 7,8 C 6,1 C 88 % 997,9 hPa 0,0 l/m 0 min 0 min 42 W/m 0,0 km/h (0 Bft) 97,83 %
23.11.2019 14:54 8,5 C 7,8 C 6,1 C 88 % 997,8 hPa 0,0 l/m 0 min 0 min 40 W/m 0,0 km/h (0 Bft) 97,87 %
23.11.2019 14:56 8,5 C 7,8 C 6,1 C 88 % 997,8 hPa 0,0 l/m 0 min 0 min 38 W/m 0,0 km/h (0 Bft) 95,74 %
23.11.2019 14:58 8,5 C 7,2 C 6,1 C 88 % 997,7 hPa 0,0 l/m 0 min 0 min 37 W/m 0,0 km/h (0 Bft) 97,87 %
23.11.2019 15:00 8,4 C 7,2 C 6,1 C 88 % 997,8 hPa 0,0 l/m 0 min 0 min 35 W/m 0,0 km/h (0 Bft) 100,00 %
23.11.2019 15:02 8,4 C 7,2 C 6,1 C 88 % 997,8 hPa 0,0 l/m 0 min 0 min 33 W/m 0,0 km/h (0 Bft) 97,87 %
23.11.2019 15:04 8,4 C 7,2 C 6,1 C 88 % 997,7 hPa 0,0 l/m 0 min 0 min 33 W/m 0,0 km/h (0 Bft) 100,00 %
23.11.2019 15:06 8,4 C 7,2 C 6,1 C 88 % 997,7 hPa 0,0 l/m 0 min 0 min 33 W/m 0,0 km/h (0 Bft) 97,87 %
23.11.2019 15:08 8,3 C 7,2 C 5,6 C 88 % 997,7 hPa 0,0 l/m 0 min 0 min 33 W/m 0,0 km/h (0 Bft) 100,00 %
23.11.2019 15:10 8,3 C 7,2 C 5,6 C 88 % 997,6 hPa 0,0 l/m 0 min 0 min 32 W/m 0,0 km/h (0 Bft) 97,87 %
23.11.2019 15:12 8,3 C 7,2 C 5,6 C 88 % 997,7 hPa 0,0 l/m 0 min 0 min 32 W/m 3,2 km/h (1 Bft) 100,00 %
23.11.2019 15:14 8,3 C 7,2 C 5,6 C 88 % 997,6 hPa 0,0 l/m 0 min 0 min 32 W/m 0,0 km/h (0 Bft) 100,00 %
23.11.2019 15:16 8,2 C 7,2 C 5,6 C 88 % 997,6 hPa 0,0 l/m 0 min 0 min 32 W/m 0,0 km/h (0 Bft) 100,00 %
23.11.2019 15:18 8,2 C 7,2 C 5,6 C 88 % 997,7 hPa 0,0 l/m 0 min 0 min 32 W/m 3,2 km/h (1 Bft) 100,00 %
23.11.2019 15:20 8,2 C 7,2 C 5,6 C 88 % 997,6 hPa 0,0 l/m 0 min 0 min 32 W/m 3,2 km/h (1 Bft) 100,00 %
23.11.2019 15:22 8,2 C 7,2 C 5,6 C 88 % 997,7 hPa 0,0 l/m 0 min 0 min 32 W/m 0,0 km/h (0 Bft) 97,87 %
23.11.2019 15:24 8,1 C 6,7 C 5,6 C 88 % 997,7 hPa 0,0 l/m 0 min 0 min 30 W/m 0,0 km/h (0 Bft) 97,87 %
23.11.2019 15:26 8,1 C 6,7 C 5,6 C 88 % 997,6 hPa 0,0 l/m 0 min 0 min 30 W/m 0,0 km/h (0 Bft) 100,00 %
23.11.2019 15:28 8,1 C 6,7 C 5,6 C 88 % 997,6 hPa 0,0 l/m 0 min 0 min 30 W/m 0,0 km/h (0 Bft) 97,87 %
23.11.2019 15:30 8,0 C 6,7 C 5,6 C 88 % 997,6 hPa 0,0 l/m 0 min 0 min 29 W/m 0,0 km/h (0 Bft) 100,00 %
23.11.2019 15:32 7,9 C 6,7 C 5,6 C 88 % 997,6 hPa 0,0 l/m 0 min 0 min 28 W/m 3,2 km/h (1 Bft) 97,87 %
23.11.2019 15:34 7,9 C 6,7 C 5,6 C 89 % 997,6 hPa 0,0 l/m 0 min 0 min 28 W/m 3,2 km/h (1 Bft) 93,62 %
23.11.2019 15:36 7,9 C 7,2 C 5,6 C 89 % 997,7 hPa 0,0 l/m 0 min 0 min 27 W/m 3,2 km/h (1 Bft) 100,00 %
23.11.2019 15:38 7,9 C 7,2 C 5,6 C 89 % 997,7 hPa 0,0 l/m 0 min 0 min 26 W/m 3,2 km/h (1 Bft) 100,00 %
23.11.2019 15:40 7,8 C 7,2 C 5,6 C 89 % 997,8 hPa 0,0 l/m 0 min 0 min 26 W/m 3,2 km/h (1 Bft) 100,00 %
23.11.2019 15:42 7,8 C 7,2 C 5,6 C 89 % 997,8 hPa 0,0 l/m 0 min 0 min 26 W/m 0,0 km/h (0 Bft) 97,87 %
23.11.2019 15:44 7,8 C 7,2 C 5,6 C 89 % 997,8 hPa 0,0 l/m 0 min 0 min 25 W/m 0,0 km/h (0 Bft) 97,87 %
23.11.2019 15:46 7,8 C 7,2 C 5,6 C 89 % 997,8 hPa 0,0 l/m 0 min 0 min 24 W/m 0,0 km/h (0 Bft) 97,87 %
23.11.2019 15:48 7,8 C 6,7 C 5,6 C 89 % 997,8 hPa 0,0 l/m 0 min 0 min 23 W/m 0,0 km/h (0 Bft) 97,87 %
23.11.2019 15:50 7,8 C 6,7 C 5,6 C 89 % 997,8 hPa 0,0 l/m 0 min 0 min 21 W/m 0,0 km/h (0 Bft) 95,65 %
23.11.2019 15:52 7,7 C 6,7 C 5,6 C 89 % 997,8 hPa 0,0 l/m 0 min 0 min 20 W/m 0,0 km/h (0 Bft) 95,74 %
23.11.2019 15:54 7,7 C 6,7 C 5,6 C 89 % 997,8 hPa 0,0 l/m 0 min 0 min 19 W/m 3,2 km/h (1 Bft) 97,87 %
23.11.2019 15:56 7,7 C 7,2 C 5,6 C 89 % 997,8 hPa 0,0 l/m 0 min 0 min 18 W/m 0,0 km/h (0 Bft) 95,74 %
23.11.2019 15:58 7,7 C 6,7 C 5,6 C 89 % 997,9 hPa 0,0 l/m 0 min 0 min 17 W/m 3,2 km/h (1 Bft) 95,74 %
23.11.2019 16:00 7,7 C 6,7 C 5,6 C 89 % 997,8 hPa 0,0 l/m 0 min 0 min 16 W/m 3,2 km/h (1 Bft) 95,74 %
23.11.2019 16:02 7,7 C 6,7 C 5,6 C 90 % 997,9 hPa 0,0 l/m 0 min 0 min 14 W/m 0,0 km/h (0 Bft) 95,65 %
23.11.2019 16:04 7,7 C 6,7 C 5,6 C 89 % 997,9 hPa 0,0 l/m 0 min 0 min 13 W/m 0,0 km/h (0 Bft) 95,74 %
23.11.2019 16:06 7,6 C 6,7 C 5,6 C 89 % 998,0 hPa 0,0 l/m 0 min 0 min 12 W/m 0,0 km/h (0 Bft) 95,74 %
23.11.2019 16:08 7,6 C 6,7 C 5,0 C 89 % 998,0 hPa 0,0 l/m 0 min 0 min 12 W/m 0,0 km/h (0 Bft) 95,74 %
23.11.2019 16:10 7,6 C 6,7 C 5,0 C 90 % 998,0 hPa 0,0 l/m 0 min 0 min 12 W/m 0,0 km/h (0 Bft) 95,74 %
23.11.2019 16:12 7,6 C 6,7 C 5,0 C 90 % 997,9 hPa 0,0 l/m 0 min 0 min 11 W/m 0,0 km/h (0 Bft) 95,74 %
23.11.2019 16:14 7,6 C 6,7 C 5,0 C 90 % 998,0 hPa 0,0 l/m 0 min 0 min 11 W/m 0,0 km/h (0 Bft) 93,48 %
23.11.2019 16:16 7,6 C 6,7 C 5,0 C 90 % 998,0 hPa 0,0 l/m 0 min 0 min 11 W/m 0,0 km/h (0 Bft) 95,74 %
23.11.2019 16:18 7,6 C 6,1 C 5,0 C 90 % 998,0 hPa 0,0 l/m 0 min 0 min 9 W/m 0,0 km/h (0 Bft) 95,74 %
23.11.2019 16:20 7,6 C 6,1 C 5,0 C 90 % 998,0 hPa 0,0 l/m 0 min 0 min 9 W/m 0,0 km/h (0 Bft) 95,74 %
23.11.2019 16:22 7,5 C 6,1 C 5,0 C 90 % 998,0 hPa 0,0 l/m 0 min 0 min 8 W/m 0,0 km/h (0 Bft) 95,74 %
23.11.2019 16:24 7,5 C 6,1 C 5,0 C 90 % 998,1 hPa 0,0 l/m 0 min 0 min 7 W/m 0,0 km/h (0 Bft) 89,13 %
23.11.2019 16:26 7,5 C 6,1 C 5,0 C 90 % 998,1 hPa 0,0 l/m 0 min 0 min 7 W/m 0,0 km/h (0 Bft) 95,74 %
23.11.2019 16:28 7,4 C 6,1 C 5,0 C 90 % 998,1 hPa 0,0 l/m 0 min 0 min 6 W/m 0,0 km/h (0 Bft) 95,74 %
23.11.2019 16:30 7,4 C 6,1 C 5,0 C 90 % 998,1 hPa 0,0 l/m 0 min 0 min 5 W/m 3,2 km/h (1 Bft) 97,87 %
23.11.2019 16:32 7,4 C 6,1 C 5,0 C 90 % 998,0 hPa 0,0 l/m 0 min 0 min 5 W/m 0,0 km/h (0 Bft) 97,87 %
23.11.2019 16:34 7,4 C 6,1 C 5,0 C 90 % 998,1 hPa 0,0 l/m 0 min 0 min 1 W/m 3,2 km/h (1 Bft) 97,87 %
23.11.2019 16:36 7,3 C 6,1 C 5,0 C 90 % 998,1 hPa 0,0 l/m 0 min 0 min 0 W/m 0,0 km/h (0 Bft) 97,83 %
23.11.2019 16:38 7,3 C 6,1 C 5,0 C 90 % 998,1 hPa 0,0 l/m 0 min 0 min 0 W/m 0,0 km/h (0 Bft) 97,87 %
23.11.2019 16:40 7,3 C 6,1 C 4,4 C 90 % 998,1 hPa 0,0 l/m 0 min 0 min 0 W/m 0,0 km/h (0 Bft) 97,87 %
23.11.2019 16:42 7,3 C 6,1 C 4,4 C 90 % 998,2 hPa 0,0 l/m 0 min 0 min 0 W/m 0,0 km/h (0 Bft) 52,17 %
23.11.2019 16:44 7,3 C 6,1 C 4,4 C 90 % 998,2 hPa 0,0 l/m 0 min 0 min 0 W/m 0,0 km/h (0 Bft) 97,87 %
23.11.2019 16:46 7,2 C 6,1 C 4,4 C 90 % 998,3 hPa 0,0 l/m 0 min 0 min 0 W/m 0,0 km/h (0 Bft) 95,74 %
23.11.2019 16:48 7,2 C 6,1 C 4,4 C 90 % 998,4 hPa 0,0 l/m 0 min 0 min 0 W/m 0,0 km/h (0 Bft) 97,83 %
23.11.2019 16:50 7,2 C 6,1 C 5,0 C 90 % 998,4 hPa 0,0 l/m 0 min 0 min 0 W/m 3,2 km/h (1 Bft) 97,87 %
23.11.2019 16:52 7,2 C 6,1 C 5,0 C 90 % 998,4 hPa 0,0 l/m 0 min 0 min 0 W/m 0,0 km/h (0 Bft) 100,00 %
23.11.2019 16:54 7,2 C 6,1 C 4,4 C 90 % 998,4 hPa 0,0 l/m 0 min 0 min 0 W/m 0,0 km/h (0 Bft) 100,00 %
23.11.2019 16:56 7,1 C 6,1 C 4,4 C 90 % 998,5 hPa 0,0 l/m 0 min 0 min 0 W/m 3,2 km/h (1 Bft) 100,00 %
23.11.2019 16:58 7,1 C 6,1 C 4,4 C 90 % 998,6 hPa 0,0 l/m 0 min 0 min 0 W/m 0,0 km/h (0 Bft) 95,74 %
23.11.2019 17:00 7,1 C 6,1 C 4,4 C 90 % 998,6 hPa 0,0 l/m 0 min 0 min 0 W/m 0,0 km/h (0 Bft) 97,83 %
23.11.2019 17:02 7,1 C 6,1 C 4,4 C 90 % 998,7 hPa 0,0 l/m 0 min 0 min 0 W/m 0,0 km/h (0 Bft) 97,87 %
23.11.2019 17:04 7,1 C 6,1 C 4,4 C 90 % 998,8 hPa 0,0 l/m 0 min 0 min 0 W/m 0,0 km/h (0 Bft) 97,87 %
23.11.2019 17:06 7,1 C 5,6 C 4,4 C 90 % 998,8 hPa 0,0 l/m 0 min 0 min 0 W/m 0,0 km/h (0 Bft) 97,87 %
23.11.2019 17:08 7,1 C 5,6 C 4,4 C 90 % 998,8 hPa 0,0 l/m 0 min 0 min 0 W/m 0,0 km/h (0 Bft) 95,74 %
23.11.2019 17:10 7,1 C 5,6 C 4,4 C 90 % 998,8 hPa 0,0 l/m 0 min 0 min 0 W/m 0,0 km/h (0 Bft) 95,74 %
23.11.2019 17:12 7,0 C 5,6 C 4,4 C 90 % 998,9 hPa 0,0 l/m 0 min 0 min 0 W/m 0,0 km/h (0 Bft) 97,83 %
23.11.2019 17:14 7,0 C 5,6 C 4,4 C 90 % 998,9 hPa 0,0 l/m 0 min 0 min 0 W/m 0,0 km/h (0 Bft) 95,74 %
23.11.2019 17:16 6,9 C 5,6 C 4,4 C 90 % 999,0 hPa 0,0 l/m 0 min 0 min 0 W/m 0,0 km/h (0 Bft) 97,87 %
23.11.2019 17:18 6,9 C 5,6 C 4,4 C 90 % 998,9 hPa 0,0 l/m 0 min 0 min 0 W/m 0,0 km/h (0 Bft) 97,87 %
23.11.2019 17:20 6,9 C 5,6 C 4,4 C 90 % 998,8 hPa 0,0 l/m 0 min 0 min 0 W/m 0,0 km/h (0 Bft) 97,87 %
23.11.2019 17:22 6,9 C 5,6 C 4,4 C 90 % 998,7 hPa 0,0 l/m 0 min 0 min 0 W/m 3,2 km/h (1 Bft) 93,62 %
23.11.2019 17:24 6,9 C 5,6 C 4,4 C 91 % 998,7 hPa 0,0 l/m 0 min 0 min 0 W/m 0,0 km/h (0 Bft) 97,83 %
23.11.2019 17:26 6,8 C 5,6 C 4,4 C 91 % 998,7 hPa 0,0 l/m 0 min 0 min 0 W/m 3,2 km/h (1 Bft) 97,87 %
23.11.2019 17:28 6,8 C 6,1 C 4,4 C 91 % 998,7 hPa 0,0 l/m 0 min 0 min 0 W/m 3,2 km/h (1 Bft) 97,87 %
23.11.2019 17:30 6,8 C 6,1 C 5,0 C 91 % 998,7 hPa 0,0 l/m 0 min 0 min 0 W/m 6,4 km/h (2 Bft) 97,87 %
23.11.2019 17:32 6,8 C 6,1 C 5,0 C 91 % 998,7 hPa 0,0 l/m 0 min 0 min 0 W/m 3,2 km/h (1 Bft) 97,87 %
23.11.2019 17:34 6,8 C 6,1 C 5,0 C 91 % 998,8 hPa 0,0 l/m 0 min 0 min 0 W/m 0,0 km/h (0 Bft) 97,83 %
23.11.2019 17:36 6,8 C 6,1 C 5,0 C 91 % 998,8 hPa 0,0 l/m 0 min 0 min 0 W/m 3,2 km/h (1 Bft) 95,74 %
23.11.2019 17:38 6,7 C 6,1 C 4,4 C 91 % 998,8 hPa 0,0 l/m 0 min 0 min 0 W/m 0,0 km/h (0 Bft) 97,87 %
23.11.2019 17:40 6,7 C 6,1 C 4,4 C 91 % 998,9 hPa 0,0 l/m 0 min 0 min 0 W/m 0,0 km/h (0 Bft) 95,74 %
23.11.2019 17:42 6,7 C 6,1 C 5,0 C 91 % 999,0 hPa 0,0 l/m 0 min 0 min 0 W/m 0,0 km/h (0 Bft) 97,87 %
23.11.2019 17:44 6,7 C 6,1 C 5,0 C 91 % 999,0 hPa 0,0 l/m 0 min 0 min 0 W/m 0,0 km/h (0 Bft) 100,00 %
23.11.2019 17:46 6,7 C 6,1 C 5,0 C 91 % 998,9 hPa 0,0 l/m 0 min 0 min 0 W/m 0,0 km/h (0 Bft) 100,00 %
23.11.2019 17:48 6,7 C 6,1 C 5,0 C 91 % 999,0 hPa 0,0 l/m 0 min 0 min 0 W/m 0,0 km/h (0 Bft) 100,00 %
23.11.2019 17:50 6,7 C 6,1 C 5,0 C 91 % 999,0 hPa 0,0 l/m 0 min 0 min 0 W/m 3,2 km/h (1 Bft) 100,00 %
23.11.2019 17:52 6,7 C 6,1 C 5,0 C 92 % 999,0 hPa 0,0 l/m 0 min 0 min 0 W/m 3,2 km/h (1 Bft) 97,87 %
23.11.2019 17:54 6,7 C 6,1 C 5,0 C 92 % 999,1 hPa 0,0 l/m 0 min 0 min 0 W/m 0,0 km/h (0 Bft) 100,00 %
23.11.2019 17:56 6,7 C 6,1 C 5,0 C 92 % 999,1 hPa 0,0 l/m 0 min 0 min 0 W/m 0,0 km/h (0 Bft) 95,74 %
23.11.2019 17:58 6,7 C 6,1 C 5,0 C 92 % 999,0 hPa 0,0 l/m 0 min 0 min 0 W/m 0,0 km/h (0 Bft) 100,00 %
23.11.2019 18:00 6,7 C 6,1 C 5,0 C 92 % 998,9 hPa 0,0 l/m 0 min 0 min 0 W/m 0,0 km/h (0 Bft) 97,87 %
23.11.2019 18:02 6,7 C 6,1 C 5,0 C 92 % 998,9 hPa 0,0 l/m 0 min 0 min 0 W/m 0,0 km/h (0 Bft) 95,74 %
23.11.2019 18:04 6,7 C 6,1 C 5,0 C 92 % 999,1 hPa 0,0 l/m 0 min 0 min 0 W/m 0,0 km/h (0 Bft) 97,87 %
23.11.2019 18:06 6,7 C 6,1 C 5,0 C 92 % 999,1 hPa 0,0 l/m 0 min 0 min 0 W/m 0,0 km/h (0 Bft) 100,00 %
23.11.2019 18:08 6,7 C 6,1 C 5,0 C 92 % 999,1 hPa 0,0 l/m 0 min 0 min 0 W/m 3,2 km/h (1 Bft) 97,87 %
23.11.2019 18:10 6,7 C 6,1 C 5,0 C 92 % 999,1 hPa 0,0 l/m 0 min 0 min 0 W/m 0,0 km/h (0 Bft) 97,83 %
23.11.2019 18:12 6,8 C 6,1 C 5,0 C 92 % 999,1 hPa 0,0 l/m 0 min 0 min 0 W/m 0,0 km/h (0 Bft) 97,92 %
23.11.2019 18:14 6,8 C 6,1 C 5,0 C 92 % 999,1 hPa 0,0 l/m 0 min 0 min 0 W/m 3,2 km/h (1 Bft) 100,00 %
23.11.2019 18:16 6,8 C 6,1 C 5,0 C 92 % 999,1 hPa 0,0 l/m 0 min 0 min 0 W/m 3,2 km/h (1 Bft) 100,00 %
23.11.2019 18:18 6,8 C 6,1 C 5,0 C 93 % 999,2 hPa 0,0 l/m 0 min 0 min 0 W/m 0,0 km/h (0 Bft) 95,74 %
23.11.2019 18:20 6,8 C 6,1 C 5,0 C 92 % 999,3 hPa 0,0 l/m 0 min 0 min 0 W/m 0,0 km/h (0 Bft) 97,87 %
23.11.2019 18:22 6,8 C 6,1 C 5,0 C 93 % 999,3 hPa 0,0 l/m 0 min 0 min 0 W/m 3,2 km/h (1 Bft) 95,74 %
23.11.2019 18:24 6,8 C 6,1 C 5,0 C 93 % 999,3 hPa 0,0 l/m 0 min 0 min 0 W/m 0,0 km/h (0 Bft) 97,83 %
23.11.2019 18:26 6,8 C 6,1 C 5,0 C 93 % 999,4 hPa 0,0 l/m 0 min 0 min 0 W/m 3,2 km/h (1 Bft) 97,87 %
23.11.2019 18:28 6,8 C 6,1 C 5,0 C 93 % 999,3 hPa 0,0 l/m 0 min 0 min 0 W/m 0,0 km/h (0 Bft) 97,87 %
23.11.2019 18:30 6,8 C 6,1 C 5,0 C 93 % 999,3 hPa 0,0 l/m 0 min 0 min 0 W/m 0,0 km/h (0 Bft) 97,87 %
23.11.2019 18:32 6,8 C 6,1 C 5,0 C 93 % 999,3 hPa 0,0 l/m 0 min 0 min 0 W/m 3,2 km/h (1 Bft) 97,87 %
23.11.2019 18:34 6,8 C 6,1 C 5,0 C 93 % 999,4 hPa 0,0 l/m 0 min 0 min 0 W/m 3,2 km/h (1 Bft) 95,74 %
23.11.2019 18:36 6,8 C 6,1 C 5,0 C 93 % 999,4 hPa 0,0 l/m 0 min 0 min 0 W/m 3,2 km/h (1 Bft) 97,83 %
23.11.2019 18:38 6,8 C 6,1 C 5,0 C 93 % 999,4 hPa 0,0 l/m 0 min 0 min 0 W/m 3,2 km/h (1 Bft) 95,74 %
23.11.2019 18:40 6,8 C 6,1 C 5,0 C 93 % 999,3 hPa 0,0 l/m 0 min 0 min 0 W/m 3,2 km/h (1 Bft) 97,87 %
23.11.2019 18:42 6,8 C 6,1 C 5,0 C 93 % 999,3 hPa 0,0 l/m 0 min 0 min 0 W/m 3,2 km/h (1 Bft) 97,87 %
23.11.2019 18:44 6,8 C 6,1 C 5,0 C 93 % 999,3 hPa 0,0 l/m 0 min 0 min 0 W/m 0,0 km/h (0 Bft) 97,87 %
23.11.2019 18:46 6,8 C 6,1 C 5,0 C 93 % 999,4 hPa 0,0 l/m 0 min 0 min 0 W/m 3,2 km/h (1 Bft) 95,74 %
23.11.2019 18:48 6,8 C 6,1 C 5,0 C 93 % 999,4 hPa 0,0 l/m 0 min 0 min 0 W/m 0,0 km/h (0 Bft) 97,83 %
23.11.2019 18:50 6,8 C 6,1 C 5,0 C 93 % 999,4 hPa 0,0 l/m 0 min 0 min 0 W/m 0,0 km/h (0 Bft) 97,87 %
23.11.2019 18:52 6,8 C 6,1 C 5,0 C 93 % 999,5 hPa 0,0 l/m 0 min 0 min 0 W/m 3,2 km/h (1 Bft) 97,87 %
23.11.2019 18:54 6,8 C 6,1 C 5,0 C 93 % 999,5 hPa 0,0 l/m 0 min 0 min 0 W/m 0,0 km/h (0 Bft) 97,87 %
23.11.2019 18:56 6,8 C 6,1 C 5,0 C 93 % 999,6 hPa 0,0 l/m 0 min 0 min 0 W/m 3,2 km/h (1 Bft) 97,87 %
23.11.2019 18:58 6,8 C 6,1 C 5,0 C 93 % 999,7 hPa 0,0 l/m 0 min 0 min 0 W/m 0,0 km/h (0 Bft) 97,83 %
23.11.2019 19:00 6,8 C 6,1 C 5,0 C 93 % 999,8 hPa 0,0 l/m 0 min 0 min 0 W/m 3,2 km/h (1 Bft) 95,74 %
23.11.2019 19:02 6,8 C 6,1 C 5,0 C 93 % 999,7 hPa 0,0 l/m 0 min 0 min 0 W/m 0,0 km/h (0 Bft) 100,00 %
23.11.2019 19:04 6,8 C 6,1 C 5,0 C 93 % 999,8 hPa 0,0 l/m 0 min 0 min 0 W/m 0,0 km/h (0 Bft) 97,87 %
23.11.2019 19:06 6,8 C 5,6 C 5,0 C 93 % 999,8 hPa 0,0 l/m 0 min 0 min 0 W/m 0,0 km/h (0 Bft) 100,00 %
23.11.2019 19:08 6,8 C 5,6 C 4,4 C 93 % 999,8 hPa 0,0 l/m 0 min 0 min 0 W/m 0,0 km/h (0 Bft) 97,87 %
23.11.2019 19:10 6,8 C 5,6 C 4,4 C 93 % 999,8 hPa 0,0 l/m 0 min 0 min 0 W/m 3,2 km/h (1 Bft) 100,00 %
23.11.2019 19:12 6,8 C 5,6 C 4,4 C 93 % 999,9 hPa 0,0 l/m 0 min 0 min 0 W/m 3,2 km/h (1 Bft) 97,87 %
23.11.2019 19:14 6,7 C 5,6 C 4,4 C 93 % 999,8 hPa 0,0 l/m 0 min 0 min 0 W/m 0,0 km/h (0 Bft) 100,00 %
23.11.2019 19:16 6,7 C 5,6 C 4,4 C 93 % 999,8 hPa 0,0 l/m 0 min 0 min 0 W/m 0,0 km/h (0 Bft) 97,87 %
23.11.2019 19:18 6,7 C 5,6 C 4,4 C 93 % 999,8 hPa 0,0 l/m 0 min 0 min 0 W/m 0,0 km/h (0 Bft) 97,87 %
23.11.2019 19:20 6,7 C 5,6 C 4,4 C 93 % 999,9 hPa 0,0 l/m 0 min 0 min 0 W/m 3,2 km/h (1 Bft) 97,87 %
23.11.2019 19:22 6,7 C 5,6 C 4,4 C 93 % 999,9 hPa 0,0 l/m 0 min 0 min 0 W/m 3,2 km/h (1 Bft) 97,83 %
23.11.2019 19:24 6,7 C 5,6 C 4,4 C 93 % 999,9 hPa 0,0 l/m 0 min 0 min 0 W/m 0,0 km/h (0 Bft) 95,74 %
23.11.2019 19:26 6,7 C 5,6 C 4,4 C 93 % 999,9 hPa 0,0 l/m 0 min 0 min 0 W/m 0,0 km/h (0 Bft) 97,87 %
23.11.2019 19:28 6,6 C 5,6 C 4,4 C 93 % 999,9 hPa 0,0 l/m 0 min 0 min 0 W/m 0,0 km/h (0 Bft) 97,87 %
23.11.2019 19:30 6,6 C 5,6 C 4,4 C 93 % 999,9 hPa 0,0 l/m 0 min 0 min 0 W/m 3,2 km/h (1 Bft) 97,87 %
23.11.2019 19:32 6,6 C 5,6 C 4,4 C 93 % 1000,0 hPa 0,0 l/m 0 min 0 min 0 W/m 0,0 km/h (0 Bft) 97,87 %
23.11.2019 19:34 6,6 C 5,0 C 4,4 C 93 % 1000,0 hPa 0,0 l/m 0 min 0 min 0 W/m 0,0 km/h (0 Bft) 97,83 %
23.11.2019 19:36 6,6 C 5,0 C 4,4 C 93 % 1000,0 hPa 0,0 l/m 0 min 0 min 0 W/m 0,0 km/h (0 Bft) 95,74 %
23.11.2019 19:38 6,5 C 5,0 C 4,4 C 93 % 1000,0 hPa 0,0 l/m 0 min 0 min 0 W/m 3,2 km/h (1 Bft) 95,74 %
23.11.2019 19:40 6,5 C 5,0 C 4,4 C 93 % 1000,0 hPa 0,0 l/m 0 min 0 min 0 W/m 3,2 km/h (1 Bft) 95,74 %
23.11.2019 19:42 6,5 C 5,0 C 4,4 C 93 % 1000,0 hPa 0,0 l/m 0 min 0 min 0 W/m 0,0 km/h (0 Bft) 93,62 %
23.11.2019 19:44 6,5 C 5,0 C 4,4 C 93 % 1000,1 hPa 0,0 l/m 0 min 0 min 0 W/m 3,2 km/h (1 Bft) 95,74 %
23.11.2019 19:46 6,4 C 5,0 C 3,9 C 93 % 1000,1 hPa 0,0 l/m 0 min 0 min 0 W/m 0,0 km/h (0 Bft) 95,65 %
23.11.2019 19:48 6,4 C 5,0 C 3,9 C 93 % 1000,1 hPa 0,0 l/m 0 min 0 min 0 W/m 0,0 km/h (0 Bft) 95,74 %
23.11.2019 19:50 6,4 C 5,0 C 3,9 C 93 % 1000,1 hPa 0,0 l/m 0 min 0 min 0 W/m 0,0 km/h (0 Bft) 93,62 %
23.11.2019 19:52 6,3 C 5,0 C 3,9 C 93 % 1000,1 hPa 0,0 l/m 0 min 0 min 0 W/m 0,0 km/h (0 Bft) 95,74 %
23.11.2019 19:53 6,3 C 5,0 C 3,9 C 93 % 1000,2 hPa 0,0 l/m 0 min 0 min 0 W/m 0,0 km/h (0 Bft) 95,74 %
23.11.2019 19:56 6,3 C 5,0 C 3,9 C 93 % 1000,2 hPa 0,0 l/m 0 min 0 min 0 W/m 3,2 km/h (1 Bft) 93,62 %
23.11.2019 19:58 6,2 C 5,0 C 3,9 C 93 % 1000,2 hPa 0,0 l/m 0 min 0 min 0 W/m 0,0 km/h (0 Bft) 93,48 %
23.11.2019 20:00 6,2 C 5,0 C 3,9 C 93 % 1000,1 hPa 0,0 l/m 0 min 0 min 0 W/m 0,0 km/h (0 Bft) 93,62 %
23.11.2019 20:02 6,2 C 5,0 C 3,9 C 93 % 1000,2 hPa 0,0 l/m 0 min 0 min 0 W/m 0,0 km/h (0 Bft) 91,49 %
23.11.2019 20:04 6,2 C 5,0 C 3,9 C 93 % 1000,2 hPa 0,0 l/m 0 min 0 min 0 W/m 0,0 km/h (0 Bft) 95,74 %
23.11.2019 20:06 6,1 C 5,0 C 3,9 C 93 % 1000,2 hPa 0,0 l/m 0 min 0 min 0 W/m 0,0 km/h (0 Bft) 95,74 %
23.11.2019 20:08 6,1 C 5,0 C 3,9 C 93 % 1000,3 hPa 0,0 l/m 0 min 0 min 0 W/m 0,0 km/h (0 Bft) 95,74 %
23.11.2019 20:10 6,1 C 5,0 C 3,9 C 93 % 1000,2 hPa 0,0 l/m 0 min 0 min 0 W/m 0,0 km/h (0 Bft) 93,48 %
23.11.2019 20:12 6,1 C 4,4 C 3,9 C 93 % 1000,3 hPa 0,0 l/m 0 min 0 min 0 W/m 0,0 km/h (0 Bft) 95,74 %
23.11.2019 20:14 6,1 C 4,4 C 3,9 C 93 % 1000,3 hPa 0,0 l/m 0 min 0 min 0 W/m 0,0 km/h (0 Bft) 93,62 %
23.11.2019 20:16 6,0 C 4,4 C 3,9 C 93 % 1000,4 hPa 0,0 l/m 0 min 0 min 0 W/m 0,0 km/h (0 Bft) 95,74 %
23.11.2019 20:18 6,0 C 4,4 C 3,9 C 93 % 1000,4 hPa 0,0 l/m 0 min 0 min 0 W/m 0,0 km/h (0 Bft) 95,74 %
23.11.2019 20:20 6,0 C 4,4 C 3,3 C 93 % 1000,4 hPa 0,0 l/m 0 min 0 min 0 W/m 0,0 km/h (0 Bft) 95,65 %
23.11.2019 20:22 5,9 C 4,4 C 3,3 C 93 % 1000,4 hPa 0,0 l/m 0 min 0 min 0 W/m 0,0 km/h (0 Bft) 97,87 %
23.11.2019 20:24 5,9 C 3,9 C 3,3 C 93 % 1000,4 hPa 0,0 l/m 0 min 0 min 0 W/m 0,0 km/h (0 Bft) 97,87 %
23.11.2019 20:26 5,9 C 4,4 C 3,3 C 93 % 1000,4 hPa 0,0 l/m 0 min 0 min 0 W/m 0,0 km/h (0 Bft) 100,00 %
23.11.2019 20:28 5,8 C 4,4 C 3,3 C 93 % 1000,4 hPa 0,0 l/m 0 min 0 min 0 W/m 0,0 km/h (0 Bft) 97,87 %
23.11.2019 20:30 5,8 C 4,4 C 3,3 C 93 % 1000,5 hPa 0,0 l/m 0 min 0 min 0 W/m 0,0 km/h (0 Bft) 100,00 %
23.11.2019 20:32 5,8 C 4,4 C 3,3 C 93 % 1000,5 hPa 0,0 l/m 0 min 0 min 0 W/m 0,0 km/h (0 Bft) 52,27 %
23.11.2019 20:34 5,8 C 4,4 C 3,3 C 93 % 1000,5 hPa 0,0 l/m 0 min 0 min 0 W/m 0,0 km/h (0 Bft) 100,00 %
23.11.2019 20:36 5,8 C 3,9 C 3,3 C 93 % 1000,6 hPa 0,0 l/m 0 min 0 min 0 W/m 0,0 km/h (0 Bft) 97,87 %
23.11.2019 20:38 5,7 C 3,9 C 3,3 C 93 % 1000,6 hPa 0,0 l/m 0 min 0 min 0 W/m 0,0 km/h (0 Bft) 100,00 %
23.11.2019 20:40 5,7 C 3,9 C 3,3 C 93 % 1000,5 hPa 0,0 l/m 0 min 0 min 0 W/m 0,0 km/h (0 Bft) 97,87 %
23.11.2019 20:42 5,7 C 3,9 C 2,8 C 93 % 1000,5 hPa 0,0 l/m 0 min 0 min 0 W/m 0,0 km/h (0 Bft) 100,00 %
23.11.2019 20:44 5,7 C 3,9 C 2,8 C 93 % 1000,5 hPa 0,0 l/m 0 min 0 min 0 W/m 0,0 km/h (0 Bft) 100,00 %
23.11.2019 20:46 5,6 C 3,9 C 3,3 C 93 % 1000,5 hPa 0,0 l/m 0 min 0 min 0 W/m 3,2 km/h (1 Bft) 97,87 %
23.11.2019 20:48 5,6 C 3,9 C 3,3 C 93 % 1000,5 hPa 0,0 l/m 0 min 0 min 0 W/m 0,0 km/h (0 Bft) 97,87 %
23.11.2019 20:50 5,6 C 3,9 C 2,8 C 93 % 1000,5 hPa 0,0 l/m 0 min 0 min 0 W/m 0,0 km/h (0 Bft) 95,74 %
23.11.2019 20:52 5,5 C 3,9 C 3,3 C 93 % 1000,5 hPa 0,0 l/m 0 min 0 min 0 W/m 3,2 km/h (1 Bft) 100,00 %
23.11.2019 20:54 5,5 C 3,9 C 3,3 C 93 % 1000,5 hPa 0,0 l/m 0 min 0 min 0 W/m 0,0 km/h (0 Bft) 95,74 %
23.11.2019 20:56 5,4 C 3,9 C 3,3 C 93 % 1000,6 hPa 0,0 l/m 0 min 0 min 0 W/m 0,0 km/h (0 Bft) 95,65 %
23.11.2019 20:58 5,4 C 3,9 C 3,3 C 93 % 1000,5 hPa 0,0 l/m 0 min 0 min 0 W/m 0,0 km/h (0 Bft) 95,74 %
23.11.2019 21:00 5,4 C 3,9 C 3,3 C 93 % 1000,6 hPa 0,0 l/m 0 min 0 min 0 W/m 3,2 km/h (1 Bft) 97,87 %
23.11.2019 21:02 5,4 C 3,9 C 3,3 C 93 % 1000,6 hPa 0,0 l/m 0 min 0 min 0 W/m 0,0 km/h (0 Bft) 95,74 %
23.11.2019 21:04 5,3 C 3,9 C 3,3 C 93 % 1000,6 hPa 0,0 l/m 0 min 0 min 0 W/m 0,0 km/h (0 Bft) 97,87 %
23.11.2019 21:06 5,3 C 3,9 C 3,3 C 93 % 1000,6 hPa 0,0 l/m 0 min 0 min 0 W/m 0,0 km/h (0 Bft) 97,87 %
23.11.2019 21:08 5,3 C 3,9 C 3,3 C 93 % 1000,6 hPa 0,0 l/m 0 min 0 min 0 W/m 0,0 km/h (0 Bft) 97,83 %
23.11.2019 21:10 5,3 C 3,9 C 3,3 C 94 % 1000,6 hPa 0,0 l/m 0 min 0 min 0 W/m 3,2 km/h (1 Bft) 97,87 %
23.11.2019 21:12 5,2 C 3,9 C 3,3 C 94 % 1000,6 hPa 0,0 l/m 0 min 0 min 0 W/m 0,0 km/h (0 Bft) 95,74 %
23.11.2019 21:14 5,2 C 3,9 C 3,3 C 93 % 1000,6 hPa 0,0 l/m 0 min 0 min 0 W/m 0,0 km/h (0 Bft) 97,87 %
23.11.2019 21:16 5,2 C 3,9 C 3,3 C 93 % 1000,6 hPa 0,0 l/m 0 min 0 min 0 W/m 0,0 km/h (0 Bft) 97,87 %
23.11.2019 21:18 5,2 C 3,9 C 3,3 C 94 % 1000,7 hPa 0,0 l/m 0 min 0 min 0 W/m 3,2 km/h (1 Bft) 97,87 %
23.11.2019 21:20 5,1 C 3,9 C 3,3 C 94 % 1000,7 hPa 0,0 l/m 0 min 0 min 0 W/m 0,0 km/h (0 Bft) 97,83 %
23.11.2019 21:22 5,1 C 3,9 C 3,3 C 94 % 1000,7 hPa 0,0 l/m 0 min 0 min 0 W/m 0,0 km/h (0 Bft) 97,87 %
23.11.2019 21:24 5,1 C 3,9 C 2,8 C 94 % 1000,8 hPa 0,0 l/m 0 min 0 min 0 W/m 0,0 km/h (0 Bft) 95,74 %
23.11.2019 21:26 5,1 C 3,9 C 2,8 C 94 % 1000,8 hPa 0,0 l/m 0 min 0 min 0 W/m 3,2 km/h (1 Bft) 97,87 %
23.11.2019 21:28 5,1 C 3,9 C 2,8 C 94 % 1000,7 hPa 0,0 l/m 0 min 0 min 0 W/m 0,0 km/h (0 Bft) 95,74 %
23.11.2019 21:30 5,1 C 3,9 C 2,8 C 94 % 1000,7 hPa 0,0 l/m 0 min 0 min 0 W/m 0,0 km/h (0 Bft) 97,83 %
23.11.2019 21:32 5,0 C 3,9 C 2,8 C 94 % 1000,8 hPa 0,0 l/m 0 min 0 min 0 W/m 0,0 km/h (0 Bft) 97,87 %
23.11.2019 21:34 5,0 C 3,9 C 2,8 C 94 % 1000,8 hPa 0,0 l/m 0 min 0 min 0 W/m 0,0 km/h (0 Bft) 97,87 %
23.11.2019 21:36 5,0 C 3,9 C 2,8 C 94 % 1000,8 hPa 0,0 l/m 0 min 0 min 0 W/m 0,0 km/h (0 Bft) 97,87 %
23.11.2019 21:38 5,0 C 3,9 C 2,8 C 94 % 1000,8 hPa 0,0 l/m 0 min 0 min 0 W/m 0,0 km/h (0 Bft) 97,87 %
23.11.2019 21:40 4,9 C 3,9 C 2,8 C 94 % 1000,8 hPa 0,0 l/m 0 min 0 min 0 W/m 0,0 km/h (0 Bft) 97,87 %
23.11.2019 21:42 4,9 C 3,9 C 2,8 C 94 % 1000,8 hPa 0,0 l/m 0 min 0 min 0 W/m 0,0 km/h (0 Bft) 97,83 %
23.11.2019 21:44 4,9 C 3,9 C 2,8 C 94 % 1000,8 hPa 0,0 l/m 0 min 0 min 0 W/m 3,2 km/h (1 Bft) 100,00 %
23.11.2019 21:46 4,9 C 3,9 C 2,8 C 94 % 1000,8 hPa 0,0 l/m 0 min 0 min 0 W/m 0,0 km/h (0 Bft) 97,87 %
23.11.2019 21:48 4,9 C 3,9 C 2,8 C 94 % 1000,8 hPa 0,0 l/m 0 min 0 min 0 W/m 0,0 km/h (0 Bft) 100,00 %
23.11.2019 21:50 4,8 C 3,9 C 2,8 C 94 % 1000,8 hPa 0,0 l/m 0 min 0 min 0 W/m 0,0 km/h (0 Bft) 100,00 %
23.11.2019 21:52 4,8 C 3,9 C 2,8 C 94 % 1000,8 hPa 0,0 l/m 0 min 0 min 0 W/m 0,0 km/h (0 Bft) 100,00 %
23.11.2019 21:54 4,8 C 3,3 C 2,8 C 94 % 1000,8 hPa 0,0 l/m 0 min 0 min 0 W/m 0,0 km/h (0 Bft) 100,00 %
23.11.2019 21:56 4,8 C 3,3 C 2,8 C 94 % 1000,8 hPa 0,0 l/m 0 min 0 min 0 W/m 3,2 km/h (1 Bft) 100,00 %
23.11.2019 21:58 4,8 C 3,3 C 2,8 C 95 % 1000,8 hPa 0,0 l/m 0 min 0 min 0 W/m 0,0 km/h (0 Bft) 100,00 %
23.11.2019 22:00 4,8 C 3,3 C 2,8 C 95 % 1000,8 hPa 0,0 l/m 0 min 0 min 0 W/m 0,0 km/h (0 Bft) 100,00 %
23.11.2019 22:02 4,7 C 3,3 C 2,8 C 95 % 1000,8 hPa 0,0 l/m 0 min 0 min 0 W/m 0,0 km/h (0 Bft) 100,00 %
23.11.2019 22:04 4,7 C 3,3 C 2,8 C 94 % 1000,9 hPa 0,0 l/m 0 min 0 min 0 W/m 0,0 km/h (0 Bft) 100,00 %
23.11.2019 22:06 4,7 C 3,3 C 2,8 C 94 % 1000,9 hPa 0,0 l/m 0 min 0 min 0 W/m 0,0 km/h (0 Bft) 100,00 %
23.11.2019 22:08 4,7 C 3,3 C 2,8 C 94 % 1001,0 hPa 0,0 l/m 0 min 0 min 0 W/m 0,0 km/h (0 Bft) 100,00 %
23.11.2019 22:10 4,7 C 3,3 C 2,8 C 94 % 1000,9 hPa 0,0 l/m 0 min 0 min 0 W/m 0,0 km/h (0 Bft) 100,00 %
23.11.2019 22:12 4,7 C 3,3 C 2,8 C 94 % 1000,9 hPa 0,0 l/m 0 min 0 min 0 W/m 0,0 km/h (0 Bft) 100,00 %
23.11.2019 22:14 4,6 C 3,3 C 2,8 C 95 % 1000,9 hPa 0,0 l/m 0 min 0 min 0 W/m 0,0 km/h (0 Bft) 97,87 %
23.11.2019 22:16 4,6 C 3,3 C 2,8 C 95 % 1001,0 hPa 0,0 l/m 0 min 0 min 0 W/m 0,0 km/h (0 Bft) 100,00 %
23.11.2019 22:18 4,6 C 3,3 C 2,8 C 95 % 1001,0 hPa 0,0 l/m 0 min 0 min 0 W/m 0,0 km/h (0 Bft) 100,00 %
23.11.2019 22:20 4,6 C 3,3 C 2,8 C 95 % 1001,0 hPa 0,0 l/m 0 min 0 min 0 W/m 0,0 km/h (0 Bft) 97,87 %
23.11.2019 22:22 4,6 C 3,3 C 2,8 C 95 % 1001,0 hPa 0,0 l/m 0 min 0 min 0 W/m 0,0 km/h (0 Bft) 93,62 %
23.11.2019 22:24 4,6 C 3,3 C 2,8 C 95 % 1001,1 hPa 0,0 l/m 0 min 0 min 0 W/m 0,0 km/h (0 Bft) 97,87 %
23.11.2019 22:26 4,6 C 3,3 C 2,8 C 95 % 1001,1 hPa 0,0 l/m 0 min 0 min 0 W/m 0,0 km/h (0 Bft) 95,74 %
23.11.2019 22:28 4,6 C 3,3 C 2,8 C 95 % 1001,1 hPa 0,0 l/m 0 min 0 min 0 W/m 0,0 km/h (0 Bft) 97,83 %
23.11.2019 22:30 4,5 C 3,3 C 2,2 C 95 % 1001,2 hPa 0,0 l/m 0 min 0 min 0 W/m 3,2 km/h (1 Bft) 97,87 %
23.11.2019 22:32 4,5 C 3,3 C 2,2 C 95 % 1001,2 hPa 0,0 l/m 0 min 0 min 0 W/m 0,0 km/h (0 Bft) 97,87 %
23.11.2019 22:34 4,5 C 3,3 C 2,2 C 95 % 1001,3 hPa 0,0 l/m 0 min 0 min 0 W/m 0,0 km/h (0 Bft) 95,74 %
23.11.2019 22:36 4,5 C 3,3 C 2,2 C 95 % 1001,2 hPa 0,0 l/m 0 min 0 min 0 W/m 0,0 km/h (0 Bft) 97,87 %
23.11.2019 22:38 4,5 C 3,3 C 2,2 C 95 % 1001,1 hPa 0,0 l/m 0 min 0 min 0 W/m 0,0 km/h (0 Bft) 97,87 %
23.11.2019 22:40 4,4 C 3,3 C 2,2 C 95 % 1001,2 hPa 0,0 l/m 0 min 0 min 0 W/m 0,0 km/h (0 Bft) 97,83 %
23.11.2019 22:42 4,4 C 3,3 C 2,2 C 95 % 1001,2 hPa 0,0 l/m 0 min 0 min 0 W/m 0,0 km/h (0 Bft) 97,87 %
23.11.2019 22:44 4,4 C 3,3 C 2,2 C 95 % 1001,2 hPa 0,0 l/m 0 min 0 min 0 W/m 0,0 km/h (0 Bft) 95,74 %
23.11.2019 22:46 4,4 C 3,3 C 2,2 C 95 % 1001,2 hPa 0,0 l/m 0 min 0 min 0 W/m 0,0 km/h (0 Bft) 97,87 %
23.11.2019 22:48 4,4 C 3,3 C 2,2 C 95 % 1001,2 hPa 0,0 l/m 0 min 0 min 0 W/m 0,0 km/h (0 Bft) 95,74 %
23.11.2019 22:50 4,4 C 3,3 C 2,2 C 95 % 1001,2 hPa 0,0 l/m 0 min 0 min 0 W/m 0,0 km/h (0 Bft) 95,74 %
23.11.2019 22:52 4,3 C 3,3 C 2,2 C 95 % 1001,2 hPa 0,0 l/m 0 min 0 min 0 W/m 0,0 km/h (0 Bft) 93,48 %
23.11.2019 22:54 4,4 C 3,3 C 2,2 C 95 % 1001,3 hPa 0,0 l/m 0 min 0 min 0 W/m 3,2 km/h (1 Bft) 91,49 %
23.11.2019 22:56 4,3 C 3,3 C 2,2 C 95 % 1001,2 hPa 0,0 l/m 0 min 0 min 0 W/m 0,0 km/h (0 Bft) 95,74 %
23.11.2019 22:58 4,3 C 3,3 C 2,2 C 95 % 1001,3 hPa 0,0 l/m 0 min 0 min 0 W/m 0,0 km/h (0 Bft) 95,74 %
23.11.2019 23:00 4,3 C 3,3 C 2,2 C 95 % 1001,3 hPa 0,0 l/m 0 min 0 min 0 W/m 0,0 km/h (0 Bft) 95,74 %
23.11.2019 23:02 4,3 C 3,3 C 2,2 C 95 % 1001,3 hPa 0,0 l/m 0 min 0 min 0 W/m 0,0 km/h (0 Bft) 95,74 %
23.11.2019 23:04 4,3 C 3,3 C 2,2 C 95 % 1001,3 hPa 0,0 l/m 0 min 0 min 0 W/m 0,0 km/h (0 Bft) 95,65 %
23.11.2019 23:06 4,3 C 3,3 C 2,2 C 95 % 1001,4 hPa 0,0 l/m 0 min 0 min 0 W/m 0,0 km/h (0 Bft) 95,74 %
23.11.2019 23:08 4,3 C 3,3 C 2,2 C 95 % 1001,4 hPa 0,0 l/m 0 min 0 min 0 W/m 0,0 km/h (0 Bft) 95,74 %
23.11.2019 23:10 4,3 C 3,3 C 2,2 C 95 % 1001,4 hPa 0,0 l/m 0 min 0 min 0 W/m 0,0 km/h (0 Bft) 97,87 %
23.11.2019 23:12 4,3 C 3,3 C 2,2 C 95 % 1001,4 hPa 0,0 l/m 0 min 0 min 0 W/m 0,0 km/h (0 Bft) 97,87 %
23.11.2019 23:14 4,3 C 3,3 C 2,2 C 95 % 1001,4 hPa 0,0 l/m 0 min 0 min 0 W/m 0,0 km/h (0 Bft) 93,62 %
23.11.2019 23:16 4,3 C 3,3 C 2,2 C 95 % 1001,4 hPa 0,0 l/m 0 min 0 min 0 W/m 0,0 km/h (0 Bft) 95,65 %
23.11.2019 23:18 4,3 C 3,3 C 2,2 C 95 % 1001,5 hPa 0,0 l/m 0 min 0 min 0 W/m 0,0 km/h (0 Bft) 97,87 %
23.11.2019 23:20 4,3 C 3,3 C 2,2 C 95 % 1001,5 hPa 0,0 l/m 0 min 0 min 0 W/m 0,0 km/h (0 Bft) 95,74 %
23.11.2019 23:22 4,2 C 2,8 C 2,2 C 95 % 1001,6 hPa 0,0 l/m 0 min 0 min 0 W/m 0,0 km/h (0 Bft) 97,87 %
23.11.2019 23:24 4,3 C 2,8 C 2,2 C 95 % 1001,6 hPa 0,0 l/m 0 min 0 min 0 W/m 0,0 km/h (0 Bft) 95,74 %
23.11.2019 23:26 4,2 C 2,8 C 2,2 C 95 % 1001,5 hPa 0,0 l/m 0 min 0 min 0 W/m 0,0 km/h (0 Bft) 95,65 %
23.11.2019 23:28 4,2 C 2,8 C 2,2 C 95 % 1001,6 hPa 0,0 l/m 0 min 0 min 0 W/m 0,0 km/h (0 Bft) 95,74 %
23.11.2019 23:30 4,2 C 2,8 C 2,2 C 95 % 1001,6 hPa 0,0 l/m 0 min 0 min 0 W/m 0,0 km/h (0 Bft) 95,74 %
23.11.2019 23:32 4,2 C 2,8 C 2,2 C 95 % 1001,6 hPa 0,0 l/m 0 min 0 min 0 W/m 0,0 km/h (0 Bft) 93,62 %
23.11.2019 23:34 4,2 C 2,8 C 2,2 C 95 % 1001,6 hPa 0,0 l/m 0 min 0 min 0 W/m 0,0 km/h (0 Bft) 95,74 %
23.11.2019 23:36 4,1 C 2,2 C 1,7 C 95 % 1001,6 hPa 0,0 l/m 0 min 0 min 0 W/m 0,0 km/h (0 Bft) 95,74 %
23.11.2019 23:38 4,1 C 2,2 C 1,7 C 95 % 1001,6 hPa 0,0 l/m 0 min 0 min 0 W/m 0,0 km/h (0 Bft) 95,65 %
23.11.2019 23:40 4,1 C 2,8 C 1,7 C 95 % 1001,6 hPa 0,0 l/m 0 min 0 min 0 W/m 0,0 km/h (0 Bft) 91,49 %
23.11.2019 23:42 4,1 C 2,8 C 1,7 C 95 % 1001,6 hPa 0,0 l/m 0 min 0 min 0 W/m 0,0 km/h (0 Bft) 93,62 %
23.11.2019 23:44 4,1 C 2,8 C 1,7 C 95 % 1001,7 hPa 0,0 l/m 0 min 0 min 0 W/m 0,0 km/h (0 Bft) 95,74 %
23.11.2019 23:46 4,1 C 2,8 C 1,7 C 95 % 1001,7 hPa 0,0 l/m 0 min 0 min 0 W/m 0,0 km/h (0 Bft) 95,74 %
23.11.2019 23:48 4,0 C 2,8 C 1,7 C 95 % 1001,7 hPa 0,0 l/m 0 min 0 min 0 W/m 0,0 km/h (0 Bft) 97,87 %
23.11.2019 23:50 4,0 C 2,8 C 1,7 C 95 % 1001,7 hPa 0,0 l/m 0 min 0 min 0 W/m 0,0 km/h (0 Bft) 97,83 %
23.11.2019 23:52 3,9 C 2,8 C 1,7 C 95 % 1001,7 hPa 0,0 l/m 0 min 0 min 0 W/m 0,0 km/h (0 Bft) 97,87 %
23.11.2019 23:54 3,9 C 2,8 C 1,7 C 95 % 1001,7 hPa 0,0 l/m 0 min 0 min 0 W/m 0,0 km/h (0 Bft) 97,87 %
23.11.2019 23:56 3,9 C 2,8 C 1,7 C 95 % 1001,7 hPa 0,0 l/m 0 min 0 min 0 W/m 0,0 km/h (0 Bft) 95,74 %
23.11.2019 23:58 3,9 C 2,8 C 1,7 C 95 % 1001,8 hPa 0,0 l/m 0 min 0 min 0 W/m 0,0 km/h (0 Bft) 97,87 %
_ Min-Zeit 08:00 07:18 23:36 13:12 15:10 - - - - 05:12 00:02
Minimum _ 3,3 C 2,2 C 1,7 C 87 % 997,6 hPa - - - - 0,0 km/h (0 Bft) 15,38 %
_ Max-Zeit 12:58 12:44 12:16 10:24 00:00 00:00 09:46 00:00 12:12 02:58 00:08
Maximum _ 8,7 C 12,8 C 9,4 C 97 % 1002,2 hPa 0,0 l/m 2 min 0 min 315 W/m 41,8 km/h
O-SO (6 Bft)
266,08 %
Durchschnitt _ 5,5 C 5,1 C 4,1 C 93 % 999,8 hPa #0,0 l/m #1:42 h #0 min. 95 W/m 4,3 km/h (1 Bft) 97,45 %
© 2019 W. Hausmann